Wetterdaten: Mittwoch, 20.09.2023
Datum Zeit Temp. Aussen Temp. o. S. Temp +5cm Feuchte Auss Luftdruck Regen Sonnenschein Regendauer Solar Windben Empfang
20.09.2023 00:00 17,9 C 16,7 C 13,3 C 78 % 1010,8 hPa 0,0 l/m 0 min 0 min 0 W/m 19,3 km/h (3 Bft) 97,87 %
20.09.2023 00:02 17,8 C 16,7 C 13,3 C 78 % 1010,9 hPa 0,0 l/m 0 min 0 min 0 W/m 9,7 km/h (2 Bft) 97,50 %
20.09.2023 00:05 17,8 C 16,7 C 13,3 C 78 % 1010,9 hPa 0,0 l/m 0 min 0 min 0 W/m 12,9 km/h (3 Bft) 99,12 %
20.09.2023 00:14 17,8 C 16,7 C 13,3 C 78 % 1010,9 hPa 0,0 l/m 0 min 0 min 0 W/m 22,5 km/h (4 Bft) 97,14 %
20.09.2023 00:15 17,8 C 16,7 C 13,3 C 78 % 1010,9 hPa 0,0 l/m 0 min 0 min 0 W/m 3,2 km/h (1 Bft) 95,83 %
20.09.2023 00:20 17,8 C 16,7 C 13,3 C 78 % 1010,8 hPa 0,0 l/m 0 min 0 min 0 W/m 12,9 km/h (3 Bft) 98,46 %
20.09.2023 00:26 17,8 C 16,7 C 13,3 C 78 % 1010,8 hPa 0,0 l/m 0 min 0 min 0 W/m 12,9 km/h (3 Bft) 98,98 %
20.09.2023 00:27 17,8 C 16,7 C 13,3 C 78 % 1010,8 hPa 0,0 l/m 0 min 0 min 0 W/m 3,2 km/h (1 Bft) 100,00 %
20.09.2023 00:32 17,7 C 16,7 C 13,3 C 79 % 1010,8 hPa 0,0 l/m 0 min 0 min 0 W/m 16,1 km/h (3 Bft) 95,74 %
20.09.2023 00:34 17,8 C 16,7 C 13,3 C 79 % 1010,7 hPa 0,0 l/m 0 min 0 min 0 W/m 16,1 km/h (3 Bft) 98,15 %
20.09.2023 00:36 17,7 C 16,7 C 13,3 C 79 % 1010,7 hPa 0,0 l/m 0 min 0 min 0 W/m 6,4 km/h (2 Bft) 97,87 %
20.09.2023 00:38 17,8 C 16,7 C 13,3 C 79 % 1010,8 hPa 0,0 l/m 0 min 0 min 0 W/m 16,1 km/h (3 Bft) 100,00 %
20.09.2023 00:40 17,7 C 16,7 C 13,3 C 79 % 1010,7 hPa 0,0 l/m 0 min 0 min 0 W/m 12,9 km/h (3 Bft) 100,00 %
20.09.2023 00:42 17,7 C 16,7 C 13,3 C 79 % 1010,8 hPa 0,0 l/m 0 min 0 min 0 W/m 9,7 km/h (2 Bft) 97,87 %
20.09.2023 00:44 17,7 C 16,7 C 13,3 C 79 % 1010,7 hPa 0,0 l/m 0 min 0 min 0 W/m 3,2 km/h (1 Bft) 100,00 %
20.09.2023 00:46 17,7 C 16,7 C 13,3 C 79 % 1010,7 hPa 0,0 l/m 0 min 0 min 0 W/m 9,7 km/h (2 Bft) 100,00 %
20.09.2023 00:48 17,8 C 16,7 C 13,3 C 79 % 1010,8 hPa 0,0 l/m 0 min 0 min 0 W/m 12,9 km/h (3 Bft) 95,74 %
20.09.2023 00:50 17,8 C 16,7 C 13,3 C 79 % 1010,7 hPa 0,0 l/m 0 min 0 min 0 W/m 6,4 km/h (2 Bft) 97,87 %
20.09.2023 00:52 17,7 C 16,7 C 13,3 C 79 % 1010,7 hPa 0,0 l/m 0 min 0 min 0 W/m 16,1 km/h (3 Bft) 97,87 %
20.09.2023 00:54 17,8 C 16,7 C 13,3 C 79 % 1010,8 hPa 0,0 l/m 0 min 0 min 0 W/m 6,4 km/h (2 Bft) 52,38 %
20.09.2023 00:56 17,8 C 16,7 C 13,3 C 79 % 1010,8 hPa 0,0 l/m 0 min 0 min 0 W/m 6,4 km/h (2 Bft) 97,87 %
20.09.2023 00:58 17,8 C 16,7 C 13,3 C 79 % 1010,8 hPa 0,0 l/m 0 min 0 min 0 W/m 12,9 km/h (3 Bft) 97,83 %
20.09.2023 01:00 17,8 C 16,7 C 13,3 C 79 % 1010,8 hPa 0,0 l/m 0 min 0 min 0 W/m 9,7 km/h (2 Bft) 97,22 %
20.09.2023 01:02 17,8 C 17,2 C 13,3 C 79 % 1010,8 hPa 0,0 l/m 0 min 0 min 0 W/m 19,3 km/h (3 Bft) 97,87 %
20.09.2023 01:04 17,8 C 17,2 C 13,3 C 79 % 1010,8 hPa 0,0 l/m 0 min 0 min 0 W/m 16,1 km/h (3 Bft) 97,96 %
20.09.2023 01:08 17,8 C 17,2 C 13,3 C 79 % 1010,7 hPa 0,0 l/m 0 min 0 min 0 W/m 19,3 km/h (3 Bft) 96,88 %
20.09.2023 01:12 17,8 C 17,2 C 13,3 C 79 % 1010,7 hPa 0,0 l/m 0 min 0 min 0 W/m 6,4 km/h (2 Bft) 97,37 %
20.09.2023 01:14 17,8 C 17,2 C 13,3 C 79 % 1010,8 hPa 0,0 l/m 0 min 0 min 0 W/m 16,1 km/h (3 Bft) 97,87 %
20.09.2023 01:16 17,8 C 17,2 C 13,3 C 79 % 1010,8 hPa 0,0 l/m 0 min 0 min 0 W/m 9,7 km/h (2 Bft) 97,83 %
20.09.2023 01:18 17,8 C 17,2 C 13,3 C 79 % 1010,8 hPa 0,0 l/m 0 min 0 min 0 W/m 12,9 km/h (3 Bft) 95,74 %
20.09.2023 01:20 17,8 C 17,2 C 13,3 C 79 % 1010,7 hPa 0,0 l/m 0 min 0 min 0 W/m 9,7 km/h (2 Bft) 97,87 %
20.09.2023 01:22 17,8 C 17,2 C 13,3 C 79 % 1010,7 hPa 0,0 l/m 0 min 0 min 0 W/m 19,3 km/h (3 Bft) 97,87 %
20.09.2023 01:24 17,9 C 17,2 C 13,3 C 79 % 1010,8 hPa 0,0 l/m 0 min 0 min 0 W/m 16,1 km/h (3 Bft) 95,74 %
20.09.2023 01:26 17,9 C 17,2 C 13,3 C 79 % 1010,8 hPa 0,0 l/m 0 min 0 min 0 W/m 12,9 km/h (3 Bft) 91,49 %
20.09.2023 01:28 17,9 C 17,2 C 13,3 C 79 % 1010,8 hPa 0,0 l/m 0 min 0 min 0 W/m 12,9 km/h (3 Bft) 95,74 %
20.09.2023 01:30 17,9 C 17,2 C 13,3 C 79 % 1010,8 hPa 0,0 l/m 0 min 0 min 0 W/m 19,3 km/h (3 Bft) 95,74 %
20.09.2023 01:32 17,9 C 17,2 C 13,3 C 79 % 1010,8 hPa 0,0 l/m 0 min 0 min 0 W/m 16,1 km/h (3 Bft) 95,65 %
20.09.2023 01:34 17,9 C 17,2 C 13,3 C 79 % 1010,8 hPa 0,0 l/m 0 min 0 min 0 W/m 9,7 km/h (2 Bft) 93,62 %
20.09.2023 01:36 17,9 C 17,2 C 13,3 C 79 % 1010,8 hPa 0,0 l/m 0 min 0 min 0 W/m 6,4 km/h (2 Bft) 93,62 %
20.09.2023 01:38 17,9 C 17,2 C 13,3 C 79 % 1010,8 hPa 0,0 l/m 0 min 0 min 0 W/m 6,4 km/h (2 Bft) 97,87 %
20.09.2023 01:40 17,9 C 17,2 C 13,3 C 79 % 1010,7 hPa 0,0 l/m 0 min 0 min 0 W/m 12,9 km/h (3 Bft) 95,74 %
20.09.2023 01:42 17,9 C 16,7 C 13,3 C 80 % 1010,8 hPa 0,0 l/m 0 min 0 min 0 W/m 16,1 km/h (3 Bft) 95,74 %
20.09.2023 01:44 17,9 C 16,7 C 13,3 C 79 % 1010,8 hPa 0,0 l/m 0 min 0 min 0 W/m 6,4 km/h (2 Bft) 93,62 %
20.09.2023 01:46 17,9 C 16,7 C 13,3 C 79 % 1010,8 hPa 0,0 l/m 0 min 0 min 0 W/m 12,9 km/h (3 Bft) 95,65 %
20.09.2023 01:48 17,8 C 16,7 C 13,3 C 79 % 1010,7 hPa 0,0 l/m 0 min 0 min 0 W/m 12,9 km/h (3 Bft) 93,62 %
20.09.2023 01:50 17,8 C 16,7 C 13,3 C 79 % 1010,8 hPa 0,0 l/m 0 min 0 min 0 W/m 19,3 km/h (3 Bft) 93,62 %
20.09.2023 01:52 17,8 C 16,7 C 13,3 C 79 % 1010,8 hPa 0,0 l/m 0 min 0 min 0 W/m 22,5 km/h (4 Bft) 95,74 %
20.09.2023 01:54 17,8 C 16,7 C 13,3 C 80 % 1010,8 hPa 0,0 l/m 0 min 0 min 0 W/m 16,1 km/h (3 Bft) 95,74 %
20.09.2023 01:56 17,8 C 16,7 C 13,3 C 80 % 1010,8 hPa 0,0 l/m 0 min 0 min 0 W/m 16,1 km/h (3 Bft) 95,00 %
20.09.2023 01:58 17,8 C 16,7 C 13,3 C 80 % 1010,8 hPa 0,0 l/m 0 min 0 min 0 W/m 19,3 km/h (3 Bft) 95,83 %
20.09.2023 02:00 17,8 C 16,7 C 13,3 C 80 % 1010,7 hPa 0,0 l/m 0 min 0 min 0 W/m 16,1 km/h (3 Bft) 95,74 %
20.09.2023 02:02 17,8 C 16,7 C 13,3 C 80 % 1010,7 hPa 0,0 l/m 0 min 0 min 0 W/m 22,5 km/h (4 Bft) 95,74 %
20.09.2023 02:04 17,8 C 16,7 C 13,3 C 80 % 1010,8 hPa 0,0 l/m 0 min 0 min 0 W/m 16,1 km/h (3 Bft) 95,92 %
20.09.2023 02:06 17,8 C 16,7 C 13,3 C 80 % 1010,7 hPa 0,0 l/m 0 min 0 min 0 W/m 6,4 km/h (2 Bft) 95,08 %
20.09.2023 02:08 17,8 C 16,7 C 13,3 C 80 % 1010,7 hPa 0,0 l/m 0 min 0 min 0 W/m 6,4 km/h (2 Bft) 97,14 %
20.09.2023 02:10 17,8 C 16,7 C 13,3 C 80 % 1010,7 hPa 0,0 l/m 0 min 0 min 0 W/m 12,9 km/h (3 Bft) 95,83 %
20.09.2023 02:12 17,8 C 16,7 C 13,3 C 80 % 1010,7 hPa 0,0 l/m 0 min 0 min 0 W/m 6,4 km/h (2 Bft) 95,65 %
20.09.2023 02:14 17,8 C 16,7 C 13,3 C 80 % 1010,7 hPa 0,0 l/m 0 min 0 min 0 W/m 12,9 km/h (3 Bft) 97,87 %
20.09.2023 02:16 17,8 C 16,7 C 13,3 C 80 % 1010,8 hPa 0,0 l/m 0 min 0 min 0 W/m 12,9 km/h (3 Bft) 97,87 %
20.09.2023 02:18 17,8 C 16,7 C 13,3 C 80 % 1010,7 hPa 0,0 l/m 0 min 0 min 0 W/m 16,1 km/h (3 Bft) 100,00 %
20.09.2023 02:20 17,7 C 16,7 C 13,3 C 80 % 1010,7 hPa 0,0 l/m 0 min 0 min 0 W/m 9,7 km/h (2 Bft) 100,00 %
20.09.2023 02:22 17,7 C 16,7 C 13,3 C 80 % 1010,7 hPa 0,0 l/m 0 min 0 min 0 W/m 12,9 km/h (3 Bft) 97,87 %
20.09.2023 02:24 17,7 C 16,7 C 13,3 C 81 % 1010,7 hPa 0,0 l/m 0 min 0 min 0 W/m 9,7 km/h (2 Bft) 100,00 %
20.09.2023 02:26 17,7 C 16,7 C 13,3 C 81 % 1010,7 hPa 0,0 l/m 0 min 0 min 0 W/m 9,7 km/h (2 Bft) 100,00 %
20.09.2023 02:28 17,7 C 16,7 C 13,3 C 81 % 1010,7 hPa 0,0 l/m 0 min 0 min 0 W/m 12,9 km/h (3 Bft) 100,00 %
20.09.2023 02:30 17,7 C 16,7 C 13,3 C 81 % 1010,7 hPa 0,0 l/m 0 min 0 min 0 W/m 12,9 km/h (3 Bft) 100,00 %
20.09.2023 02:36 17,7 C 16,7 C 13,3 C 81 % 1010,7 hPa 0,0 l/m 0 min 0 min 0 W/m 16,1 km/h (3 Bft) 100,00 %
20.09.2023 02:38 17,6 C 16,7 C 13,3 C 81 % 1010,7 hPa 0,0 l/m 0 min 0 min 0 W/m 12,9 km/h (3 Bft) 100,00 %
20.09.2023 02:40 17,6 C 16,7 C 13,3 C 81 % 1010,7 hPa 0,0 l/m 0 min 0 min 0 W/m 6,4 km/h (2 Bft) 100,00 %
20.09.2023 02:42 17,6 C 16,7 C 13,3 C 81 % 1010,7 hPa 0,0 l/m 0 min 0 min 0 W/m 16,1 km/h (3 Bft) 100,00 %
20.09.2023 02:44 17,6 C 16,7 C 13,3 C 81 % 1010,7 hPa 0,0 l/m 0 min 0 min 0 W/m 16,1 km/h (3 Bft) 100,00 %
20.09.2023 02:46 17,6 C 16,7 C 12,8 C 81 % 1010,7 hPa 0,0 l/m 0 min 0 min 0 W/m 6,4 km/h (2 Bft) 95,74 %
20.09.2023 02:48 17,6 C 16,7 C 12,8 C 82 % 1010,7 hPa 0,0 l/m 0 min 0 min 0 W/m 16,1 km/h (3 Bft) 100,00 %
20.09.2023 02:50 17,6 C 16,7 C 12,8 C 82 % 1010,7 hPa 0,0 l/m 0 min 0 min 0 W/m 16,1 km/h (3 Bft) 97,87 %
20.09.2023 02:52 17,6 C 16,7 C 12,8 C 82 % 1010,7 hPa 0,0 l/m 0 min 0 min 0 W/m 12,9 km/h (3 Bft) 97,87 %
20.09.2023 02:54 17,6 C 16,7 C 12,8 C 82 % 1010,7 hPa 0,0 l/m 0 min 0 min 0 W/m 12,9 km/h (3 Bft) 100,00 %
20.09.2023 02:56 17,5 C 16,7 C 12,8 C 82 % 1010,7 hPa 0,0 l/m 0 min 0 min 0 W/m 22,5 km/h (4 Bft) 100,00 %
20.09.2023 02:58 17,5 C 16,7 C 12,8 C 82 % 1010,7 hPa 0,0 l/m 0 min 0 min 0 W/m 19,3 km/h (3 Bft) 100,00 %
20.09.2023 03:00 17,5 C 16,7 C 12,8 C 82 % 1010,7 hPa 0,0 l/m 0 min 0 min 0 W/m 3,2 km/h (1 Bft) 100,00 %
20.09.2023 03:02 17,5 C 16,7 C 12,8 C 82 % 1010,7 hPa 0,0 l/m 0 min 0 min 0 W/m 12,9 km/h (3 Bft) 98,18 %
20.09.2023 03:04 17,5 C 16,7 C 12,8 C 82 % 1010,6 hPa 0,0 l/m 0 min 0 min 0 W/m 12,9 km/h (3 Bft) 100,00 %
20.09.2023 03:06 17,5 C 16,7 C 12,8 C 82 % 1010,7 hPa 0,0 l/m 0 min 0 min 0 W/m 12,9 km/h (3 Bft) 100,00 %
20.09.2023 03:08 17,5 C 16,7 C 12,8 C 82 % 1010,6 hPa 0,0 l/m 0 min 0 min 0 W/m 12,9 km/h (3 Bft) 97,62 %
20.09.2023 03:10 17,5 C 16,7 C 12,8 C 82 % 1010,6 hPa 0,0 l/m 0 min 0 min 0 W/m 22,5 km/h (4 Bft) 97,87 %
20.09.2023 03:12 17,5 C 16,7 C 12,8 C 82 % 1010,6 hPa 0,0 l/m 0 min 0 min 0 W/m 19,3 km/h (3 Bft) 100,00 %
20.09.2023 03:15 17,4 C 16,7 C 12,8 C 83 % 1010,6 hPa 0,0 l/m 0 min 0 min 0 W/m 19,3 km/h (3 Bft) 100,00 %
20.09.2023 03:18 17,4 C 16,7 C 12,8 C 83 % 1010,5 hPa 0,0 l/m 0 min 0 min 0 W/m 9,7 km/h (2 Bft) 100,00 %
20.09.2023 03:20 17,4 C 16,7 C 12,8 C 83 % 1010,6 hPa 0,0 l/m 0 min 0 min 0 W/m 9,7 km/h (2 Bft) 100,00 %
20.09.2023 03:22 17,4 C 16,7 C 12,8 C 83 % 1010,5 hPa 0,0 l/m 0 min 0 min 0 W/m 12,9 km/h (3 Bft) 95,92 %
20.09.2023 03:24 17,4 C 16,7 C 12,8 C 83 % 1010,6 hPa 0,0 l/m 0 min 0 min 0 W/m 12,9 km/h (3 Bft) 95,74 %
20.09.2023 03:26 17,4 C 16,7 C 12,8 C 83 % 1010,6 hPa 0,0 l/m 0 min 0 min 0 W/m 19,3 km/h (3 Bft) 100,00 %
20.09.2023 03:28 17,4 C 16,7 C 12,8 C 83 % 1010,6 hPa 0,0 l/m 0 min 0 min 0 W/m 16,1 km/h (3 Bft) 97,78 %
20.09.2023 03:32 17,4 C 16,7 C 12,8 C 83 % 1010,6 hPa 0,0 l/m 0 min 0 min 0 W/m 19,3 km/h (3 Bft) 99,00 %
20.09.2023 03:34 17,4 C 16,7 C 12,8 C 83 % 1010,5 hPa 0,0 l/m 0 min 0 min 0 W/m 19,3 km/h (3 Bft) 100,00 %
20.09.2023 03:36 17,4 C 16,7 C 12,8 C 83 % 1010,6 hPa 0,0 l/m 0 min 0 min 0 W/m 6,4 km/h (2 Bft) 97,14 %
20.09.2023 03:38 17,4 C 16,7 C 12,8 C 83 % 1010,6 hPa 0,0 l/m 0 min 0 min 0 W/m 16,1 km/h (3 Bft) 96,43 %
20.09.2023 03:40 17,4 C 16,7 C 12,8 C 83 % 1010,6 hPa 0,0 l/m 0 min 0 min 0 W/m 19,3 km/h (3 Bft) 98,25 %
20.09.2023 03:44 17,4 C 16,7 C 12,8 C 83 % 1010,6 hPa 0,0 l/m 0 min 0 min 0 W/m 16,1 km/h (3 Bft) 94,00 %
20.09.2023 03:48 17,4 C 16,7 C 12,8 C 83 % 1010,5 hPa 0,0 l/m 0 min 0 min 0 W/m 16,1 km/h (3 Bft) 92,94 %
20.09.2023 03:52 17,4 C 16,7 C 12,8 C 83 % 1010,5 hPa 0,0 l/m 0 min 0 min 0 W/m 16,1 km/h (3 Bft) 95,74 %
20.09.2023 03:56 17,4 C 16,7 C 12,8 C 83 % 1010,5 hPa 0,0 l/m 0 min 0 min 0 W/m 19,3 km/h (3 Bft) 93,81 %
20.09.2023 03:58 17,4 C 16,7 C 12,8 C 83 % 1010,4 hPa 0,0 l/m 0 min 0 min 0 W/m 9,7 km/h (2 Bft) 93,75 %
20.09.2023 04:02 17,4 C 16,7 C 12,8 C 83 % 1010,4 hPa 0,0 l/m 0 min 0 min 0 W/m 22,5 km/h (4 Bft) 95,56 %
20.09.2023 04:04 17,4 C 16,7 C 12,8 C 83 % 1010,4 hPa 0,0 l/m 0 min 0 min 0 W/m 12,9 km/h (3 Bft) 93,18 %
20.09.2023 04:08 17,4 C 16,7 C 12,8 C 83 % 1010,4 hPa 0,0 l/m 0 min 0 min 0 W/m 19,3 km/h (3 Bft) 96,23 %
20.09.2023 04:12 17,4 C 16,7 C 12,8 C 83 % 1010,3 hPa 0,0 l/m 0 min 0 min 0 W/m 9,7 km/h (2 Bft) 95,35 %
20.09.2023 04:14 17,4 C 16,7 C 12,8 C 83 % 1010,3 hPa 0,0 l/m 0 min 0 min 0 W/m 9,7 km/h (2 Bft) 95,65 %
20.09.2023 04:16 17,4 C 16,7 C 12,8 C 83 % 1010,3 hPa 0,0 l/m 0 min 0 min 0 W/m 9,7 km/h (2 Bft) 95,74 %
20.09.2023 04:18 17,4 C 16,7 C 12,8 C 83 % 1010,3 hPa 0,0 l/m 0 min 0 min 0 W/m 6,4 km/h (2 Bft) 93,88 %
20.09.2023 04:20 17,4 C 16,1 C 12,8 C 83 % 1010,3 hPa 0,0 l/m 0 min 0 min 0 W/m 6,4 km/h (2 Bft) 95,74 %
20.09.2023 04:22 17,4 C 16,1 C 12,8 C 84 % 1010,3 hPa 0,0 l/m 0 min 0 min 0 W/m 6,4 km/h (2 Bft) 95,74 %
20.09.2023 04:24 17,4 C 16,1 C 12,8 C 84 % 1010,3 hPa 0,0 l/m 0 min 0 min 0 W/m 3,2 km/h (1 Bft) 95,74 %
20.09.2023 04:26 17,3 C 16,1 C 12,8 C 84 % 1010,3 hPa 0,0 l/m 0 min 0 min 0 W/m 6,4 km/h (2 Bft) 97,83 %
20.09.2023 04:28 17,3 C 16,1 C 12,8 C 83 % 1010,3 hPa 0,0 l/m 0 min 0 min 0 W/m 3,2 km/h (1 Bft) 95,74 %
20.09.2023 04:30 17,3 C 16,1 C 12,8 C 84 % 1010,3 hPa 0,0 l/m 0 min 0 min 0 W/m 3,2 km/h (1 Bft) 95,74 %
20.09.2023 04:32 17,3 C 16,1 C 12,8 C 84 % 1010,3 hPa 0,0 l/m 0 min 0 min 0 W/m 6,4 km/h (2 Bft) 97,87 %
20.09.2023 04:34 17,2 C 16,1 C 12,8 C 84 % 1010,3 hPa 0,0 l/m 0 min 0 min 0 W/m 6,4 km/h (2 Bft) 97,87 %
20.09.2023 04:36 17,2 C 16,1 C 12,8 C 84 % 1010,3 hPa 0,0 l/m 0 min 0 min 0 W/m 3,2 km/h (1 Bft) 97,87 %
20.09.2023 04:38 17,2 C 16,1 C 12,8 C 84 % 1010,3 hPa 0,0 l/m 0 min 0 min 0 W/m 12,9 km/h (3 Bft) 94,74 %
20.09.2023 04:40 17,2 C 16,1 C 12,8 C 84 % 1010,2 hPa 0,0 l/m 0 min 0 min 0 W/m 6,4 km/h (2 Bft) 97,87 %
20.09.2023 04:42 17,2 C 16,1 C 12,8 C 84 % 1010,2 hPa 0,0 l/m 0 min 0 min 0 W/m 6,4 km/h (2 Bft) 97,83 %
20.09.2023 04:44 17,2 C 16,1 C 12,8 C 84 % 1010,3 hPa 0,0 l/m 0 min 0 min 0 W/m 12,9 km/h (3 Bft) 97,87 %
20.09.2023 04:46 17,1 C 16,1 C 12,8 C 85 % 1010,2 hPa 0,0 l/m 0 min 0 min 0 W/m 6,4 km/h (2 Bft) 97,87 %
20.09.2023 04:48 17,1 C 16,1 C 12,8 C 85 % 1010,2 hPa 0,0 l/m 0 min 0 min 0 W/m 6,4 km/h (2 Bft) 97,87 %
20.09.2023 04:50 17,1 C 16,1 C 12,8 C 85 % 1010,2 hPa 0,0 l/m 0 min 0 min 0 W/m 3,2 km/h (1 Bft) 97,87 %
20.09.2023 04:52 17,1 C 16,1 C 12,8 C 85 % 1010,2 hPa 0,0 l/m 0 min 0 min 0 W/m 6,4 km/h (2 Bft) 97,87 %
20.09.2023 04:54 17,1 C 16,1 C 12,8 C 85 % 1010,2 hPa 0,0 l/m 0 min 0 min 0 W/m 6,4 km/h (2 Bft) 97,87 %
20.09.2023 04:56 17,0 C 15,6 C 12,2 C 85 % 1010,1 hPa 0,0 l/m 0 min 0 min 0 W/m 3,2 km/h (1 Bft) 98,04 %
20.09.2023 04:58 17,0 C 15,6 C 12,2 C 85 % 1010,1 hPa 0,0 l/m 0 min 0 min 0 W/m 3,2 km/h (1 Bft) 97,87 %
20.09.2023 05:00 16,9 C 15,6 C 12,2 C 85 % 1010,1 hPa 0,0 l/m 0 min 0 min 0 W/m 3,2 km/h (1 Bft) 100,00 %
20.09.2023 05:02 16,9 C 15,6 C 12,2 C 85 % 1010,2 hPa 0,0 l/m 0 min 0 min 0 W/m 3,2 km/h (1 Bft) 100,00 %
20.09.2023 05:04 16,9 C 15,6 C 12,2 C 85 % 1010,1 hPa 0,0 l/m 0 min 0 min 0 W/m 3,2 km/h (1 Bft) 100,00 %
20.09.2023 05:06 16,9 C 15,6 C 12,2 C 85 % 1010,1 hPa 0,0 l/m 0 min 0 min 0 W/m 12,9 km/h (3 Bft) 100,00 %
20.09.2023 05:08 16,9 C 15,6 C 12,2 C 86 % 1010,1 hPa 0,0 l/m 0 min 0 min 0 W/m 12,9 km/h (3 Bft) 100,00 %
20.09.2023 05:10 16,8 C 15,6 C 12,2 C 86 % 1010,1 hPa 0,0 l/m 0 min 0 min 0 W/m 3,2 km/h (1 Bft) 100,00 %
20.09.2023 05:12 16,8 C 15,6 C 12,2 C 86 % 1010,1 hPa 0,0 l/m 0 min 0 min 0 W/m 6,4 km/h (2 Bft) 100,00 %
20.09.2023 05:14 16,8 C 15,6 C 12,2 C 86 % 1010,0 hPa 0,0 l/m 0 min 0 min 0 W/m 3,2 km/h (1 Bft) 100,00 %
20.09.2023 05:16 16,8 C 15,6 C 12,2 C 86 % 1010,0 hPa 0,0 l/m 0 min 0 min 0 W/m 6,4 km/h (2 Bft) 97,87 %
20.09.2023 05:18 16,7 C 15,6 C 12,2 C 86 % 1009,9 hPa 0,0 l/m 0 min 0 min 0 W/m 6,4 km/h (2 Bft) 100,00 %
20.09.2023 05:20 16,7 C 15,6 C 12,2 C 86 % 1009,9 hPa 0,0 l/m 0 min 0 min 0 W/m 6,4 km/h (2 Bft) 100,00 %
20.09.2023 05:22 16,7 C 15,6 C 12,2 C 86 % 1009,9 hPa 0,0 l/m 0 min 0 min 0 W/m 6,4 km/h (2 Bft) 100,00 %
20.09.2023 05:24 16,7 C 15,6 C 12,2 C 86 % 1009,8 hPa 0,0 l/m 0 min 0 min 0 W/m 6,4 km/h (2 Bft) 100,00 %
20.09.2023 05:26 16,6 C 15,6 C 12,2 C 86 % 1009,8 hPa 0,0 l/m 0 min 0 min 0 W/m 12,9 km/h (3 Bft) 100,00 %
20.09.2023 05:28 16,6 C 15,6 C 12,2 C 86 % 1009,8 hPa 0,0 l/m 0 min 0 min 0 W/m 6,4 km/h (2 Bft) 97,83 %
20.09.2023 05:30 16,6 C 15,6 C 12,2 C 86 % 1009,8 hPa 0,0 l/m 0 min 0 min 0 W/m 12,9 km/h (3 Bft) 97,87 %
20.09.2023 05:32 16,6 C 15,6 C 12,2 C 87 % 1009,8 hPa 0,0 l/m 0 min 0 min 0 W/m 6,4 km/h (2 Bft) 95,74 %
20.09.2023 05:34 16,6 C 15,6 C 12,2 C 87 % 1009,8 hPa 0,0 l/m 0 min 0 min 0 W/m 6,4 km/h (2 Bft) 95,74 %
20.09.2023 05:36 16,6 C 15,6 C 12,2 C 87 % 1009,8 hPa 0,0 l/m 0 min 0 min 0 W/m 6,4 km/h (2 Bft) 97,87 %
20.09.2023 05:38 16,5 C 15,6 C 12,2 C 87 % 1009,8 hPa 0,0 l/m 0 min 0 min 0 W/m 19,3 km/h (3 Bft) 95,74 %
20.09.2023 05:40 16,5 C 15,6 C 12,2 C 87 % 1009,8 hPa 0,0 l/m 0 min 0 min 0 W/m 16,1 km/h (3 Bft) 97,87 %
20.09.2023 05:42 16,5 C 15,6 C 12,2 C 87 % 1009,8 hPa 0,0 l/m 0 min 0 min 0 W/m 6,4 km/h (2 Bft) 97,87 %
20.09.2023 05:44 16,5 C 15,6 C 12,2 C 87 % 1009,8 hPa 0,0 l/m 0 min 0 min 0 W/m 9,7 km/h (2 Bft) 97,83 %
20.09.2023 05:46 16,4 C 15,6 C 12,2 C 87 % 1009,7 hPa 0,0 l/m 0 min 0 min 0 W/m 12,9 km/h (3 Bft) 95,74 %
20.09.2023 05:48 16,5 C 15,6 C 12,2 C 87 % 1009,7 hPa 0,0 l/m 0 min 0 min 0 W/m 12,9 km/h (3 Bft) 97,87 %
20.09.2023 05:50 16,4 C 15,6 C 12,2 C 87 % 1009,7 hPa 0,0 l/m 0 min 0 min 0 W/m 6,4 km/h (2 Bft) 93,62 %
20.09.2023 05:52 16,4 C 15,6 C 12,2 C 87 % 1009,7 hPa 0,0 l/m 0 min 0 min 0 W/m 12,9 km/h (3 Bft) 97,87 %
20.09.2023 05:54 16,4 C 15,6 C 12,2 C 87 % 1009,7 hPa 0,0 l/m 0 min 0 min 0 W/m 9,7 km/h (2 Bft) 97,50 %
20.09.2023 05:56 16,4 C 15,6 C 12,2 C 87 % 1009,6 hPa 0,0 l/m 0 min 0 min 0 W/m 3,2 km/h (1 Bft) 97,87 %
20.09.2023 05:58 16,4 C 15,6 C 12,2 C 87 % 1009,7 hPa 0,0 l/m 0 min 0 min 0 W/m 3,2 km/h (1 Bft) 97,87 %
20.09.2023 06:00 16,4 C 15,6 C 12,2 C 87 % 1009,6 hPa 0,0 l/m 0 min 0 min 0 W/m 6,4 km/h (2 Bft) 100,00 %
20.09.2023 06:02 16,4 C 15,6 C 12,2 C 87 % 1009,5 hPa 0,0 l/m 0 min 0 min 0 W/m 6,4 km/h (2 Bft) 100,00 %
20.09.2023 06:04 16,4 C 15,6 C 12,2 C 87 % 1009,5 hPa 0,0 l/m 0 min 0 min 0 W/m 6,4 km/h (2 Bft) 100,00 %
20.09.2023 06:08 16,4 C 15,6 C 12,2 C 87 % 1009,6 hPa 0,0 l/m 0 min 0 min 0 W/m 3,2 km/h (1 Bft) 100,00 %
20.09.2023 06:10 16,4 C 15,6 C 12,2 C 87 % 1009,5 hPa 0,0 l/m 0 min 0 min 0 W/m 3,2 km/h (1 Bft) 100,00 %
20.09.2023 06:12 16,4 C 15,6 C 12,2 C 87 % 1009,5 hPa 0,0 l/m 0 min 0 min 0 W/m 3,2 km/h (1 Bft) 100,00 %
20.09.2023 06:16 16,4 C 15,6 C 12,2 C 87 % 1009,5 hPa 0,0 l/m 0 min 0 min 0 W/m 6,4 km/h (2 Bft) 100,00 %
20.09.2023 06:18 16,4 C 15,6 C 12,2 C 88 % 1009,5 hPa 0,0 l/m 0 min 0 min 0 W/m 3,2 km/h (1 Bft) 100,00 %
20.09.2023 06:20 16,4 C 15,6 C 12,2 C 88 % 1009,5 hPa 0,0 l/m 0 min 0 min 0 W/m 3,2 km/h (1 Bft) 100,00 %
20.09.2023 06:22 16,4 C 15,6 C 12,2 C 88 % 1009,4 hPa 0,0 l/m 0 min 0 min 0 W/m 6,4 km/h (2 Bft) 97,87 %
20.09.2023 06:24 16,4 C 15,6 C 12,2 C 88 % 1009,4 hPa 0,0 l/m 0 min 0 min 0 W/m 3,2 km/h (1 Bft) 97,87 %
20.09.2023 06:26 16,4 C 15,6 C 12,2 C 88 % 1009,4 hPa 0,0 l/m 0 min 0 min 0 W/m 3,2 km/h (1 Bft) 100,00 %
20.09.2023 06:28 16,4 C 15,6 C 12,2 C 88 % 1009,4 hPa 0,0 l/m 0 min 0 min 0 W/m 6,4 km/h (2 Bft) 97,87 %
20.09.2023 06:30 16,3 C 15,6 C 12,2 C 88 % 1009,3 hPa 0,0 l/m 0 min 0 min 0 W/m 3,2 km/h (1 Bft) 100,00 %
20.09.2023 06:32 16,3 C 15,6 C 12,2 C 88 % 1009,3 hPa 0,0 l/m 0 min 0 min 0 W/m 3,2 km/h (1 Bft) 97,87 %
20.09.2023 06:34 16,3 C 15,6 C 12,2 C 88 % 1009,3 hPa 0,0 l/m 0 min 0 min 0 W/m 6,4 km/h (2 Bft) 97,87 %
20.09.2023 06:36 16,3 C 15,6 C 12,2 C 88 % 1009,3 hPa 0,0 l/m 0 min 0 min 0 W/m 3,2 km/h (1 Bft) 97,87 %
20.09.2023 06:38 16,3 C 15,6 C 12,2 C 88 % 1009,3 hPa 0,0 l/m 0 min 0 min 0 W/m 6,4 km/h (2 Bft) 97,87 %
20.09.2023 06:40 16,3 C 15,6 C 12,2 C 88 % 1009,4 hPa 0,0 l/m 0 min 0 min 0 W/m 6,4 km/h (2 Bft) 95,74 %
20.09.2023 06:42 16,3 C 15,6 C 12,2 C 88 % 1009,3 hPa 0,0 l/m 0 min 0 min 0 W/m 12,9 km/h (3 Bft) 89,36 %
20.09.2023 06:44 16,3 C 15,6 C 12,2 C 88 % 1009,3 hPa 0,0 l/m 0 min 0 min 0 W/m 6,4 km/h (2 Bft) 97,83 %
20.09.2023 06:46 16,3 C 15,6 C 12,2 C 88 % 1009,3 hPa 0,0 l/m 0 min 0 min 0 W/m 6,4 km/h (2 Bft) 97,87 %
20.09.2023 06:48 16,3 C 15,6 C 12,2 C 89 % 1009,3 hPa 0,0 l/m 0 min 0 min 0 W/m 3,2 km/h (1 Bft) 97,87 %
20.09.2023 06:50 16,3 C 15,6 C 12,2 C 89 % 1009,3 hPa 0,0 l/m 0 min 0 min 0 W/m 6,4 km/h (2 Bft) 95,74 %
20.09.2023 06:52 16,3 C 15,6 C 12,2 C 89 % 1009,3 hPa 0,0 l/m 0 min 0 min 0 W/m 3,2 km/h (1 Bft) 95,74 %
20.09.2023 06:54 16,3 C 15,6 C 12,2 C 89 % 1009,3 hPa 0,0 l/m 0 min 0 min 0 W/m 6,4 km/h (2 Bft) 97,87 %
20.09.2023 06:56 16,3 C 15,6 C 12,2 C 89 % 1009,4 hPa 0,0 l/m 0 min 0 min 0 W/m 12,9 km/h (3 Bft) 95,74 %
20.09.2023 06:58 16,3 C 15,6 C 12,2 C 89 % 1009,4 hPa 0,0 l/m 0 min 0 min 0 W/m 3,2 km/h (1 Bft) 91,49 %
20.09.2023 07:00 16,3 C 15,6 C 12,2 C 89 % 1009,3 hPa 0,0 l/m 0 min 0 min 0 W/m 3,2 km/h (1 Bft) 93,48 %
20.09.2023 07:02 16,3 C 15,6 C 12,2 C 89 % 1009,3 hPa 0,0 l/m 0 min 0 min 0 W/m 9,7 km/h (2 Bft) 95,74 %
20.09.2023 07:04 16,3 C 15,6 C 12,2 C 89 % 1009,4 hPa 0,0 l/m 0 min 0 min 0 W/m 3,2 km/h (1 Bft) 95,83 %
20.09.2023 07:08 16,2 C 15,6 C 12,2 C 89 % 1009,3 hPa 0,0 l/m 0 min 0 min 0 W/m 6,4 km/h (2 Bft) 95,24 %
20.09.2023 07:09 16,3 C 15,6 C 12,2 C 89 % 1009,4 hPa 0,0 l/m 0 min 0 min 0 W/m 3,2 km/h (1 Bft) 95,65 %
20.09.2023 07:10 16,2 C 15,6 C 12,2 C 89 % 1009,4 hPa 0,0 l/m 0 min 0 min 0 W/m 6,4 km/h (2 Bft) 98,25 %
20.09.2023 07:14 16,2 C 15,6 C 12,2 C 89 % 1009,4 hPa 0,0 l/m 0 min 0 min 0 W/m 3,2 km/h (1 Bft) 93,62 %
20.09.2023 07:16 16,2 C 15,0 C 12,2 C 89 % 1009,4 hPa 0,0 l/m 0 min 0 min 0 W/m 3,2 km/h (1 Bft) 95,74 %
20.09.2023 07:18 16,2 C 15,0 C 11,7 C 89 % 1009,3 hPa 0,0 l/m 0 min 0 min 0 W/m 3,2 km/h (1 Bft) 93,62 %
20.09.2023 07:20 16,2 C 15,6 C 11,7 C 89 % 1009,4 hPa 0,0 l/m 0 min 0 min 0 W/m 6,4 km/h (2 Bft) 93,62 %
20.09.2023 07:22 16,2 C 15,6 C 11,7 C 89 % 1009,3 hPa 0,0 l/m 0 min 0 min 0 W/m 6,4 km/h (2 Bft) 95,74 %
20.09.2023 07:24 16,2 C 15,0 C 11,7 C 89 % 1009,3 hPa 0,0 l/m 0 min 0 min 0 W/m 3,2 km/h (1 Bft) 95,65 %
20.09.2023 07:26 16,2 C 15,0 C 11,7 C 89 % 1009,3 hPa 0,0 l/m 0 min 0 min 2 W/m 3,2 km/h (1 Bft) 95,74 %
20.09.2023 07:28 16,2 C 15,0 C 11,7 C 89 % 1009,2 hPa 0,0 l/m 0 min 0 min 5 W/m 6,4 km/h (2 Bft) 95,74 %
20.09.2023 07:30 16,2 C 15,0 C 11,7 C 89 % 1009,2 hPa 0,0 l/m 0 min 0 min 7 W/m 6,4 km/h (2 Bft) 93,62 %
20.09.2023 07:32 16,2 C 15,0 C 11,7 C 89 % 1009,3 hPa 0,0 l/m 0 min 0 min 7 W/m 3,2 km/h (1 Bft) 95,83 %
20.09.2023 07:34 16,2 C 15,0 C 11,7 C 89 % 1009,2 hPa 0,0 l/m 0 min 0 min 7 W/m 6,4 km/h (2 Bft) 95,74 %
20.09.2023 07:36 16,1 C 15,0 C 11,7 C 89 % 1009,2 hPa 0,0 l/m 0 min 0 min 9 W/m 12,9 km/h (3 Bft) 95,74 %
20.09.2023 07:38 16,1 C 15,0 C 11,7 C 89 % 1009,2 hPa 0,0 l/m 0 min 0 min 10 W/m 6,4 km/h (2 Bft) 93,62 %
20.09.2023 07:40 16,1 C 15,0 C 11,7 C 89 % 1009,2 hPa 0,0 l/m 0 min 0 min 11 W/m 6,4 km/h (2 Bft) 97,83 %
20.09.2023 07:42 16,1 C 15,0 C 11,7 C 89 % 1009,2 hPa 0,0 l/m 0 min 0 min 12 W/m 6,4 km/h (2 Bft) 97,87 %
20.09.2023 07:44 16,1 C 15,0 C 11,7 C 89 % 1009,1 hPa 0,0 l/m 0 min 0 min 13 W/m 6,4 km/h (2 Bft) 95,74 %
20.09.2023 07:46 16,1 C 15,0 C 11,7 C 89 % 1009,1 hPa 0,0 l/m 0 min 0 min 14 W/m 16,1 km/h (3 Bft) 97,87 %
20.09.2023 07:48 15,9 C 14,4 C 11,7 C 90 % 1009,1 hPa 0,0 l/m 0 min 0 min 16 W/m 6,4 km/h (2 Bft) 97,87 %
20.09.2023 07:50 15,9 C 14,4 C 11,7 C 90 % 1009,1 hPa 0,0 l/m 0 min 0 min 16 W/m 3,2 km/h (1 Bft) 100,00 %
20.09.2023 07:52 15,9 C 14,4 C 11,1 C 90 % 1009,0 hPa 0,0 l/m 0 min 0 min 18 W/m 6,4 km/h (2 Bft) 100,00 %
20.09.2023 07:54 15,8 C 14,4 C 11,1 C 90 % 1009,1 hPa 0,0 l/m 0 min 0 min 18 W/m 6,4 km/h (2 Bft) 100,00 %
20.09.2023 07:56 15,7 C 14,4 C 11,1 C 90 % 1009,1 hPa 0,0 l/m 0 min 0 min 19 W/m 6,4 km/h (2 Bft) 97,87 %
20.09.2023 07:58 15,7 C 14,4 C 11,1 C 90 % 1009,0 hPa 0,0 l/m 0 min 0 min 19 W/m 12,9 km/h (3 Bft) 100,00 %
20.09.2023 08:00 15,6 C 14,4 C 11,1 C 90 % 1009,1 hPa 0,0 l/m 0 min 0 min 19 W/m 12,9 km/h (3 Bft) 100,00 %
20.09.2023 08:02 15,6 C 14,4 C 11,1 C 90 % 1009,0 hPa 0,0 l/m 0 min 0 min 19 W/m 6,4 km/h (2 Bft) 97,87 %
20.09.2023 08:04 15,6 C 14,4 C 11,1 C 90 % 1009,0 hPa 0,0 l/m 0 min 0 min 19 W/m 6,4 km/h (2 Bft) 100,00 %
20.09.2023 08:08 15,5 C 14,4 C 11,1 C 91 % 1009,0 hPa 0,0 l/m 0 min 0 min 19 W/m 12,9 km/h (3 Bft) 100,00 %
20.09.2023 08:09 15,5 C 14,4 C 11,1 C 91 % 1009,0 hPa 0,0 l/m 0 min 0 min 21 W/m 6,4 km/h (2 Bft) 100,00 %
20.09.2023 08:10 15,5 C 14,4 C 11,1 C 91 % 1009,0 hPa 0,0 l/m 0 min 0 min 20 W/m 12,9 km/h (3 Bft) 100,00 %
20.09.2023 08:14 15,5 C 14,4 C 11,1 C 91 % 1009,0 hPa 0,0 l/m 0 min 0 min 23 W/m 6,4 km/h (2 Bft) 100,00 %
20.09.2023 08:16 15,5 C 14,4 C 11,1 C 91 % 1009,0 hPa 0,0 l/m 0 min 0 min 24 W/m 12,9 km/h (3 Bft) 100,00 %
20.09.2023 08:18 15,4 C 14,4 C 11,1 C 91 % 1009,0 hPa 0,0 l/m 0 min 0 min 25 W/m 6,4 km/h (2 Bft) 100,00 %
20.09.2023 08:20 15,4 C 14,4 C 11,1 C 91 % 1009,0 hPa 0,0 l/m 0 min 0 min 26 W/m 12,9 km/h (3 Bft) 97,87 %
20.09.2023 08:22 15,4 C 14,4 C 11,1 C 91 % 1009,0 hPa 0,0 l/m 0 min 0 min 28 W/m 12,9 km/h (3 Bft) 100,00 %
20.09.2023 08:24 15,4 C 14,4 C 11,1 C 91 % 1009,1 hPa 0,0 l/m 0 min 0 min 29 W/m 6,4 km/h (2 Bft) 97,87 %
20.09.2023 08:26 15,4 C 14,4 C 11,1 C 91 % 1009,1 hPa 0,0 l/m 0 min 0 min 32 W/m 12,9 km/h (3 Bft) 100,00 %
20.09.2023 08:28 15,4 C 14,4 C 11,1 C 91 % 1009,1 hPa 0,0 l/m 0 min 0 min 33 W/m 12,9 km/h (3 Bft) 100,00 %
20.09.2023 08:30 15,4 C 14,4 C 11,1 C 91 % 1009,0 hPa 0,0 l/m 0 min 0 min 33 W/m 9,7 km/h (2 Bft) 100,00 %
20.09.2023 08:32 15,4 C 14,4 C 11,1 C 91 % 1009,0 hPa 0,0 l/m 0 min 0 min 33 W/m 12,9 km/h (3 Bft) 100,00 %
20.09.2023 08:34 15,4 C 14,4 C 11,1 C 92 % 1009,0 hPa 0,0 l/m 0 min 0 min 36 W/m 6,4 km/h (2 Bft) 100,00 %
20.09.2023 08:36 15,4 C 15,0 C 11,1 C 92 % 1009,0 hPa 0,0 l/m 0 min 0 min 37 W/m 9,7 km/h (2 Bft) 100,00 %
20.09.2023 08:38 15,4 C 15,0 C 11,7 C 92 % 1009,1 hPa 0,0 l/m 0 min 0 min 36 W/m 12,9 km/h (3 Bft) 100,00 %
20.09.2023 08:40 15,4 C 15,0 C 11,7 C 92 % 1009,2 hPa 0,0 l/m 0 min 0 min 35 W/m 3,2 km/h (1 Bft) 100,00 %
20.09.2023 08:42 15,4 C 15,0 C 11,7 C 92 % 1009,2 hPa 0,0 l/m 0 min 0 min 35 W/m 6,4 km/h (2 Bft) 100,00 %
20.09.2023 08:44 15,4 C 15,0 C 11,7 C 92 % 1009,1 hPa 0,0 l/m 0 min 0 min 35 W/m 12,9 km/h (3 Bft) 100,00 %
20.09.2023 08:46 15,4 C 15,0 C 11,7 C 92 % 1009,1 hPa 0,0 l/m 0 min 0 min 33 W/m 16,1 km/h (3 Bft) 100,00 %
20.09.2023 08:48 15,4 C 15,0 C 11,7 C 92 % 1009,0 hPa 0,0 l/m 0 min 0 min 33 W/m 9,7 km/h (2 Bft) 100,00 %
20.09.2023 08:50 15,5 C 15,0 C 11,7 C 92 % 1009,1 hPa 0,0 l/m 0 min 0 min 33 W/m 6,4 km/h (2 Bft) 100,00 %
20.09.2023 08:52 15,5 C 15,0 C 11,7 C 92 % 1009,1 hPa 0,0 l/m 0 min 0 min 33 W/m 6,4 km/h (2 Bft) 97,87 %
20.09.2023 08:54 15,5 C 15,0 C 11,7 C 92 % 1009,2 hPa 0,0 l/m 0 min 0 min 33 W/m 6,4 km/h (2 Bft) 100,00 %
20.09.2023 08:56 15,6 C 15,0 C 11,7 C 92 % 1009,2 hPa 0,0 l/m 0 min 0 min 33 W/m 12,9 km/h (3 Bft) 97,87 %
20.09.2023 08:58 15,6 C 15,0 C 11,7 C 92 % 1009,2 hPa 0,0 l/m 0 min 0 min 33 W/m 6,4 km/h (2 Bft) 97,92 %
20.09.2023 09:00 15,6 C 15,0 C 11,7 C 92 % 1009,2 hPa 0,0 l/m 0 min 0 min 35 W/m 9,7 km/h (2 Bft) 97,87 %
20.09.2023 09:02 15,6 C 15,6 C 11,7 C 92 % 1009,1 hPa 0,0 l/m 0 min 0 min 36 W/m 12,9 km/h (3 Bft) 97,87 %
20.09.2023 09:04 15,7 C 15,6 C 11,7 C 92 % 1009,1 hPa 0,0 l/m 0 min 0 min 39 W/m 19,3 km/h (3 Bft) 100,00 %
20.09.2023 09:10 15,8 C 15,6 C 11,7 C 92 % 1009,1 hPa 0,0 l/m 0 min 0 min 42 W/m 12,9 km/h (3 Bft) 98,63 %
20.09.2023 09:12 15,8 C 15,6 C 12,2 C 91 % 1009,1 hPa 0,0 l/m 0 min 0 min 46 W/m 12,9 km/h (3 Bft) 95,74 %
20.09.2023 09:14 15,8 C 15,6 C 12,2 C 91 % 1009,2 hPa 0,0 l/m 0 min 0 min 46 W/m 6,4 km/h (2 Bft) 97,87 %
20.09.2023 09:16 15,8 C 15,6 C 12,2 C 91 % 1009,2 hPa 0,0 l/m 0 min 0 min 48 W/m 12,9 km/h (3 Bft) 93,62 %
20.09.2023 09:18 15,9 C 15,6 C 12,2 C 91 % 1009,2 hPa 0,0 l/m 0 min 0 min 49 W/m 12,9 km/h (3 Bft) 95,74 %
20.09.2023 09:20 15,9 C 15,6 C 12,2 C 91 % 1009,2 hPa 0,0 l/m 0 min 0 min 48 W/m 12,9 km/h (3 Bft) 97,87 %
20.09.2023 09:22 15,9 C 15,6 C 12,2 C 91 % 1009,2 hPa 0,0 l/m 0 min 0 min 47 W/m 6,4 km/h (2 Bft) 97,83 %
20.09.2023 09:24 15,9 C 15,6 C 12,2 C 91 % 1009,2 hPa 0,0 l/m 0 min 0 min 46 W/m 9,7 km/h (2 Bft) 95,74 %
20.09.2023 09:26 16,0 C 15,6 C 12,2 C 91 % 1009,2 hPa 0,0 l/m 0 min 0 min 46 W/m 6,4 km/h (2 Bft) 97,87 %
20.09.2023 09:28 16,0 C 15,6 C 12,2 C 91 % 1009,2 hPa 0,0 l/m 0 min 0 min 47 W/m 12,9 km/h (3 Bft) 91,49 %
20.09.2023 09:30 16,1 C 15,6 C 12,2 C 91 % 1009,2 hPa 0,0 l/m 0 min 0 min 51 W/m 16,1 km/h (3 Bft) 95,74 %
20.09.2023 09:32 16,1 C 15,6 C 12,2 C 91 % 1009,2 hPa 0,0 l/m 0 min 0 min 53 W/m 6,4 km/h (2 Bft) 93,62 %
20.09.2023 09:34 16,1 C 15,6 C 12,2 C 91 % 1009,2 hPa 0,0 l/m 0 min 0 min 56 W/m 12,9 km/h (3 Bft) 95,74 %
20.09.2023 09:36 16,1 C 16,1 C 12,2 C 91 % 1009,1 hPa 0,0 l/m 0 min 0 min 58 W/m 6,4 km/h (2 Bft) 93,48 %
20.09.2023 09:38 16,2 C 16,1 C 12,2 C 91 % 1009,1 hPa 0,0 l/m 0 min 0 min 60 W/m 12,9 km/h (3 Bft) 93,62 %
20.09.2023 09:40 16,2 C 16,1 C 12,2 C 91 % 1009,1 hPa 0,0 l/m 0 min 0 min 59 W/m 16,1 km/h (3 Bft) 93,62 %
20.09.2023 09:42 16,3 C 16,1 C 12,8 C 91 % 1009,1 hPa 0,0 l/m 0 min 0 min 60 W/m 6,4 km/h (2 Bft) 93,62 %
20.09.2023 09:44 16,3 C 16,7 C 12,8 C 91 % 1009,1 hPa 0,0 l/m 0 min 0 min 60 W/m 19,3 km/h (3 Bft) 95,74 %
20.09.2023 09:46 16,4 C 16,7 C 12,8 C 91 % 1009,1 hPa 0,0 l/m 0 min 0 min 62 W/m 16,1 km/h (3 Bft) 95,74 %
20.09.2023 09:48 16,5 C 16,7 C 12,8 C 91 % 1009,1 hPa 0,0 l/m 0 min 0 min 61 W/m 6,4 km/h (2 Bft) 94,00 %
20.09.2023 09:50 16,6 C 16,7 C 12,8 C 90 % 1009,1 hPa 0,0 l/m 0 min 0 min 71 W/m 19,3 km/h (3 Bft) 95,74 %
20.09.2023 09:52 16,6 C 16,7 C 12,8 C 90 % 1009,1 hPa 0,0 l/m 0 min 0 min 103 W/m 19,3 km/h (3 Bft) 95,65 %
20.09.2023 09:54 16,7 C 16,7 C 12,8 C 90 % 1009,1 hPa 0,0 l/m 0 min 0 min 60 W/m 12,9 km/h (3 Bft) 94,74 %
20.09.2023 09:56 16,7 C 16,7 C 12,8 C 90 % 1009,2 hPa 0,0 l/m 0 min 0 min 62 W/m 16,1 km/h (3 Bft) 95,74 %
20.09.2023 09:58 16,7 C 16,7 C 12,8 C 90 % 1009,2 hPa 0,0 l/m 0 min 0 min 75 W/m 19,3 km/h (3 Bft) 95,74 %
20.09.2023 10:00 16,8 C 16,7 C 12,8 C 89 % 1009,2 hPa 0,0 l/m 0 min 0 min 72 W/m 16,1 km/h (3 Bft) 95,74 %
20.09.2023 10:02 16,8 C 16,7 C 12,8 C 89 % 1009,1 hPa 0,0 l/m 0 min 0 min 85 W/m 22,5 km/h (4 Bft) 95,74 %
20.09.2023 10:04 16,8 C 16,7 C 12,8 C 89 % 1009,1 hPa 0,0 l/m 0 min 0 min 99 W/m 12,9 km/h (3 Bft) 94,00 %
20.09.2023 10:10 16,9 C 16,7 C 12,8 C 89 % 1009,1 hPa 0,0 l/m 0 min 0 min 129 W/m 16,1 km/h (3 Bft) 95,14 %
20.09.2023 10:12 16,9 C 16,7 C 12,8 C 89 % 1009,2 hPa 0,0 l/m 0 min 0 min 153 W/m 12,9 km/h (3 Bft) 97,87 %
20.09.2023 10:14 17,0 C 16,7 C 12,8 C 89 % 1009,1 hPa 0,0 l/m 0 min 0 min 157 W/m 16,1 km/h (3 Bft) 97,87 %
20.09.2023 10:16 17,0 C 16,7 C 12,8 C 89 % 1009,1 hPa 0,0 l/m 0 min 0 min 163 W/m 19,3 km/h (3 Bft) 97,87 %
20.09.2023 10:18 17,1 C 17,2 C 13,3 C 88 % 1009,1 hPa 0,0 l/m 0 min 0 min 168 W/m 12,9 km/h (3 Bft) 97,87 %
20.09.2023 10:20 17,1 C 17,2 C 13,3 C 88 % 1009,1 hPa 0,0 l/m 0 min 0 min 167 W/m 22,5 km/h (4 Bft) 95,74 %
20.09.2023 10:22 17,1 C 17,2 C 13,3 C 88 % 1009,0 hPa 0,0 l/m 0 min 0 min 165 W/m 12,9 km/h (3 Bft) 95,65 %
20.09.2023 10:24 17,2 C 17,2 C 13,3 C 88 % 1009,1 hPa 0,0 l/m 0 min 0 min 166 W/m 16,1 km/h (3 Bft) 93,62 %
20.09.2023 10:26 17,2 C 17,2 C 13,3 C 88 % 1009,1 hPa 0,0 l/m 0 min 0 min 162 W/m 19,3 km/h (3 Bft) 97,87 %
20.09.2023 10:28 17,2 C 17,2 C 13,3 C 88 % 1009,2 hPa 0,0 l/m 0 min 0 min 154 W/m 19,3 km/h (3 Bft) 97,87 %
20.09.2023 10:30 17,3 C 17,2 C 13,3 C 88 % 1009,1 hPa 0,0 l/m 0 min 0 min 152 W/m 6,4 km/h (2 Bft) 100,00 %
20.09.2023 10:32 17,3 C 17,2 C 13,3 C 88 % 1009,2 hPa 0,0 l/m 0 min 0 min 151 W/m 19,3 km/h (3 Bft) 100,00 %
20.09.2023 10:34 17,4 C 17,2 C 13,3 C 88 % 1009,1 hPa 0,0 l/m 0 min 0 min 150 W/m 6,4 km/h (2 Bft) 100,00 %
20.09.2023 10:36 17,4 C 17,8 C 13,3 C 88 % 1009,2 hPa 0,0 l/m 0 min 0 min 152 W/m 16,1 km/h (3 Bft) 100,00 %
20.09.2023 10:38 17,5 C 17,8 C 13,9 C 88 % 1009,2 hPa 0,0 l/m 0 min 0 min 151 W/m 16,1 km/h (3 Bft) 100,00 %
20.09.2023 10:40 17,6 C 17,8 C 13,9 C 88 % 1009,2 hPa 0,0 l/m 0 min 0 min 153 W/m 12,9 km/h (3 Bft) 100,00 %
20.09.2023 10:42 17,6 C 17,8 C 13,9 C 88 % 1009,2 hPa 0,0 l/m 0 min 0 min 156 W/m 12,9 km/h (3 Bft) 100,00 %
20.09.2023 10:44 17,6 C 17,8 C 13,9 C 88 % 1009,3 hPa 0,0 l/m 0 min 0 min 169 W/m 16,1 km/h (3 Bft) 100,00 %
20.09.2023 10:46 17,7 C 17,8 C 13,9 C 88 % 1009,3 hPa 0,0 l/m 0 min 0 min 232 W/m 16,1 km/h (3 Bft) 100,00 %
20.09.2023 10:48 17,8 C 18,3 C 13,9 C 88 % 1009,3 hPa 0,0 l/m 0 min 0 min 234 W/m 12,9 km/h (3 Bft) 100,00 %
20.09.2023 10:50 17,8 C 18,3 C 14,4 C 88 % 1009,3 hPa 0,0 l/m 2 min 0 min 332 W/m 6,4 km/h (2 Bft) 100,00 %
20.09.2023 10:52 17,9 C 18,9 C 14,4 C 88 % 1009,3 hPa 0,0 l/m 2 min 0 min 313 W/m 16,1 km/h (3 Bft) 100,00 %
20.09.2023 10:54 18,0 C 18,9 C 14,4 C 87 % 1009,3 hPa 0,0 l/m 2 min 0 min 258 W/m 16,1 km/h (3 Bft) 100,00 %
20.09.2023 10:56 18,1 C 18,9 C 14,4 C 87 % 1009,3 hPa 0,0 l/m 2 min 0 min 273 W/m 12,9 km/h (3 Bft) 100,00 %
20.09.2023 10:58 18,2 C 18,9 C 14,4 C 87 % 1009,3 hPa 0,0 l/m 0 min 0 min 204 W/m 19,3 km/h (3 Bft) 100,00 %
20.09.2023 11:00 18,3 C 18,9 C 14,4 C 86 % 1009,3 hPa 0,0 l/m 0 min 0 min 163 W/m 16,1 km/h (3 Bft) 97,87 %
20.09.2023 11:02 18,4 C 18,9 C 14,4 C 86 % 1009,3 hPa 0,0 l/m 0 min 0 min 168 W/m 12,9 km/h (3 Bft) 100,00 %
20.09.2023 11:04 18,6 C 19,4 C 15,0 C 86 % 1009,4 hPa 0,0 l/m 0 min 0 min 173 W/m 16,1 km/h (3 Bft) 100,00 %
20.09.2023 11:08 18,8 C 19,4 C 15,0 C 86 % 1009,3 hPa 0,0 l/m 0 min 0 min 177 W/m 19,3 km/h (3 Bft) 98,96 %
20.09.2023 11:10 18,9 C 20,0 C 15,0 C 85 % 1009,3 hPa 0,0 l/m 0 min 0 min 245 W/m 16,1 km/h (3 Bft) 95,74 %
20.09.2023 11:12 19,0 C 20,0 C 15,6 C 85 % 1009,4 hPa 0,0 l/m 0 min 0 min 245 W/m 6,4 km/h (2 Bft) 97,87 %
20.09.2023 11:14 19,1 C 20,6 C 15,6 C 85 % 1009,3 hPa 0,0 l/m 0 min 0 min 240 W/m 16,1 km/h (3 Bft) 93,62 %
20.09.2023 11:16 19,2 C 20,6 C 15,6 C 84 % 1009,3 hPa 0,0 l/m 0 min 0 min 244 W/m 16,1 km/h (3 Bft) 97,87 %
20.09.2023 11:18 19,3 C 20,6 C 15,6 C 84 % 1009,3 hPa 0,0 l/m 0 min 0 min 252 W/m 12,9 km/h (3 Bft) 97,87 %
20.09.2023 11:20 19,4 C 21,1 C 16,1 C 84 % 1009,2 hPa 0,0 l/m 0 min 0 min 238 W/m 19,3 km/h (3 Bft) 97,87 %
20.09.2023 11:22 19,6 C 21,1 C 16,1 C 83 % 1009,3 hPa 0,0 l/m 0 min 0 min 261 W/m 16,1 km/h (3 Bft) 97,83 %
20.09.2023 11:24 19,7 C 21,1 C 16,1 C 82 % 1009,2 hPa 0,0 l/m 0 min 0 min 244 W/m 12,9 km/h (3 Bft) 95,74 %
20.09.2023 11:26 19,8 C 21,1 C 16,1 C 81 % 1009,2 hPa 0,0 l/m 0 min 0 min 253 W/m 19,3 km/h (3 Bft) 97,87 %
20.09.2023 11:28 19,9 C 20,6 C 16,1 C 81 % 1009,2 hPa 0,0 l/m 0 min 0 min 243 W/m 16,1 km/h (3 Bft) 97,87 %
20.09.2023 11:30 20,0 C 20,6 C 16,1 C 81 % 1009,2 hPa 0,0 l/m 0 min 0 min 229 W/m 19,3 km/h (3 Bft) 95,74 %
20.09.2023 11:32 20,1 C 20,6 C 16,1 C 81 % 1009,2 hPa 0,0 l/m 0 min 0 min 193 W/m 12,9 km/h (3 Bft) 97,87 %
20.09.2023 11:34 20,1 C 20,6 C 16,1 C 80 % 1009,2 hPa 0,0 l/m 0 min 0 min 217 W/m 19,3 km/h (3 Bft) 97,87 %
20.09.2023 11:36 20,1 C 20,0 C 16,1 C 80 % 1009,2 hPa 0,0 l/m 0 min 0 min 194 W/m 12,9 km/h (3 Bft) 97,87 %
20.09.2023 11:38 20,2 C 20,0 C 16,1 C 80 % 1009,2 hPa 0,0 l/m 0 min 0 min 197 W/m 16,1 km/h (3 Bft) 95,65 %
20.09.2023 11:40 20,2 C 20,6 C 16,1 C 80 % 1009,2 hPa 0,0 l/m 0 min 0 min 216 W/m 12,9 km/h (3 Bft) 76,60 %
20.09.2023 11:42 20,2 C 20,6 C 16,1 C 80 % 1009,3 hPa 0,0 l/m 0 min 0 min 241 W/m 9,7 km/h (2 Bft) 73,91 %
20.09.2023 11:44 20,2 C 21,1 C 16,1 C 81 % 1009,3 hPa 0,0 l/m 0 min 0 min 262 W/m 9,7 km/h (2 Bft) 97,87 %
20.09.2023 11:46 20,3 C 21,1 C 16,1 C 81 % 1009,3 hPa 0,0 l/m 0 min 0 min 238 W/m 19,3 km/h (3 Bft) 95,74 %
20.09.2023 11:48 20,3 C 20,6 C 16,1 C 80 % 1009,3 hPa 0,0 l/m 0 min 0 min 172 W/m 12,9 km/h (3 Bft) 100,00 %
20.09.2023 11:50 20,3 C 21,1 C 16,1 C 80 % 1009,3 hPa 0,0 l/m 0 min 0 min 197 W/m 12,9 km/h (3 Bft) 100,00 %
20.09.2023 11:52 20,4 C 22,2 C 17,2 C 80 % 1009,2 hPa 0,0 l/m 2 min 0 min 502 W/m 19,3 km/h (3 Bft) 100,00 %
20.09.2023 11:54 20,5 C 21,7 C 17,2 C 80 % 1009,2 hPa 0,0 l/m 2 min 0 min 456 W/m 12,9 km/h (3 Bft) 100,00 %
20.09.2023 11:56 20,6 C 21,7 C 17,2 C 79 % 1009,2 hPa 0,0 l/m 0 min 0 min 252 W/m 16,1 km/h (3 Bft) 100,00 %
20.09.2023 11:58 20,6 C 22,2 C 17,2 C 80 % 1009,1 hPa 0,0 l/m 0 min 0 min 287 W/m 16,1 km/h (3 Bft) 100,00 %
20.09.2023 12:00 20,7 C 22,2 C 17,2 C 79 % 1009,2 hPa 0,0 l/m 0 min 0 min 287 W/m 6,4 km/h (2 Bft) 100,00 %
20.09.2023 12:02 20,8 C 22,8 C 17,8 C 79 % 1009,1 hPa 0,0 l/m 0 min 0 min 290 W/m 16,1 km/h (3 Bft) 97,87 %
20.09.2023 12:04 20,9 C 22,2 C 17,2 C 79 % 1009,1 hPa 0,0 l/m 0 min 0 min 254 W/m 12,9 km/h (3 Bft) 97,67 %
20.09.2023 12:08 21,1 C 22,2 C 17,2 C 78 % 1009,0 hPa 0,0 l/m 0 min 0 min 254 W/m 19,3 km/h (3 Bft) 97,85 %
20.09.2023 12:10 21,1 C 22,2 C 17,8 C 78 % 1009,1 hPa 0,0 l/m 0 min 0 min 250 W/m 19,3 km/h (3 Bft) 97,87 %
20.09.2023 12:12 21,2 C 22,2 C 17,8 C 77 % 1009,1 hPa 0,0 l/m 2 min 0 min 459 W/m 16,1 km/h (3 Bft) 97,87 %
20.09.2023 12:16 21,3 C 21,7 C 17,2 C 76 % 1009,1 hPa 0,0 l/m 4 min 0 min 364 W/m 25,7 km/h (4 Bft) 96,81 %
20.09.2023 12:18 21,3 C 21,7 C 17,2 C 76 % 1009,2 hPa 0,0 l/m 0 min 0 min 223 W/m 29,0 km/h (5 Bft) 97,87 %
20.09.2023 12:20 21,3 C 21,1 C 17,2 C 76 % 1009,1 hPa 0,0 l/m 0 min 0 min 197 W/m 32,2 km/h (5 Bft) 97,87 %
20.09.2023 12:22 21,3 C 21,1 C 17,2 C 75 % 1009,1 hPa 0,0 l/m 0 min 0 min 194 W/m 32,2 km/h (5 Bft) 97,83 %
20.09.2023 12:24 21,3 C 21,1 C 17,2 C 75 % 1009,1 hPa 0,0 l/m 0 min 0 min 204 W/m 38,6 km/h (5 Bft) 97,87 %
20.09.2023 12:26 21,3 C 21,1 C 17,2 C 75 % 1009,1 hPa 0,0 l/m 0 min 0 min 213 W/m 29,0 km/h (5 Bft) 95,74 %
20.09.2023 12:28 21,3 C 21,1 C 17,2 C 75 % 1009,0 hPa 0,0 l/m 0 min 0 min 191 W/m 22,5 km/h (4 Bft) 97,87 %
20.09.2023 12:30 21,4 C 21,7 C 17,2 C 76 % 1009,0 hPa 0,0 l/m 0 min 0 min 195 W/m 19,3 km/h (3 Bft) 97,87 %
20.09.2023 12:32 21,4 C 21,7 C 17,2 C 75 % 1008,9 hPa 0,0 l/m 0 min 0 min 188 W/m 9,7 km/h (2 Bft) 95,74 %
20.09.2023 12:34 21,5 C 21,7 C 17,2 C 75 % 1008,9 hPa 0,0 l/m 0 min 0 min 195 W/m 22,5 km/h (4 Bft) 95,74 %
20.09.2023 12:36 21,5 C 21,7 C 17,2 C 74 % 1009,1 hPa 0,0 l/m 0 min 0 min 237 W/m 19,3 km/h (3 Bft) 97,83 %
20.09.2023 12:38 21,5 C 21,7 C 17,2 C 74 % 1008,9 hPa 0,0 l/m 0 min 0 min 226 W/m 22,5 km/h (4 Bft) 95,74 %
20.09.2023 12:40 21,5 C 21,7 C 17,2 C 73 % 1008,9 hPa 0,0 l/m 0 min 0 min 197 W/m 29,0 km/h (5 Bft) 95,74 %
20.09.2023 12:42 21,6 C 21,7 C 17,2 C 73 % 1008,9 hPa 0,0 l/m 0 min 0 min 189 W/m 12,9 km/h (3 Bft) 95,74 %
20.09.2023 12:44 21,6 C 21,7 C 17,2 C 73 % 1008,9 hPa 0,0 l/m 0 min 0 min 202 W/m 22,5 km/h (4 Bft) 97,87 %
20.09.2023 12:46 21,6 C 21,7 C 17,2 C 73 % 1008,9 hPa 0,0 l/m 0 min 0 min 200 W/m 12,9 km/h (3 Bft) 97,87 %
20.09.2023 12:48 21,6 C 21,7 C 17,2 C 73 % 1008,8 hPa 0,0 l/m 0 min 0 min 190 W/m 19,3 km/h (3 Bft) 97,87 %
20.09.2023 12:50 21,6 C 21,1 C 17,2 C 73 % 1008,8 hPa 0,0 l/m 0 min 0 min 202 W/m 32,2 km/h (5 Bft) 97,87 %
20.09.2023 12:52 21,6 C 21,7 C 17,2 C 73 % 1008,7 hPa 0,0 l/m 0 min 0 min 217 W/m 16,1 km/h (3 Bft) 97,83 %
20.09.2023 12:54 21,6 C 21,7 C 17,2 C 74 % 1008,7 hPa 0,0 l/m 0 min 0 min 218 W/m 29,0 km/h (5 Bft) 100,00 %
20.09.2023 12:56 21,7 C 21,7 C 17,2 C 74 % 1008,7 hPa 0,0 l/m 0 min 0 min 222 W/m 29,0 km/h (5 Bft) 98,04 %
20.09.2023 12:58 21,8 C 22,2 C 17,2 C 73 % 1008,7 hPa 0,0 l/m 0 min 0 min 203 W/m 16,1 km/h (3 Bft) 97,87 %
20.09.2023 13:00 21,8 C 22,2 C 17,8 C 73 % 1008,8 hPa 0,0 l/m 0 min 0 min 187 W/m 32,2 km/h (5 Bft) 97,92 %
20.09.2023 13:02 21,9 C 22,2 C 17,8 C 73 % 1008,5 hPa 0,0 l/m 0 min 0 min 183 W/m 22,5 km/h (4 Bft) 95,74 %
20.09.2023 13:04 21,9 C 22,2 C 17,8 C 72 % 1008,7 hPa 0,0 l/m 0 min 0 min 231 W/m 29,0 km/h (5 Bft) 97,37 %
20.09.2023 13:08 21,9 C 21,7 C 17,8 C 71 % 1008,6 hPa 0,0 l/m 0 min 0 min 198 W/m 38,6 km/h (5 Bft) 96,91 %
20.09.2023 13:09 21,9 C 21,7 C 17,2 C 71 % 1008,6 hPa 0,0 l/m 0 min 0 min 188 W/m 19,3 km/h (3 Bft) 95,83 %
20.09.2023 13:12 21,9 C 21,7 C 17,2 C 70 % 1008,6 hPa 0,0 l/m 0 min 0 min 200 W/m 41,8 km/h (6 Bft) 95,71 %
20.09.2023 13:14 21,9 C 21,7 C 17,2 C 70 % 1008,5 hPa 0,0 l/m 0 min 0 min 236 W/m 32,2 km/h (5 Bft) 95,74 %
20.09.2023 13:16 21,9 C 22,2 C 17,2 C 70 % 1008,6 hPa 0,0 l/m 0 min 0 min 278 W/m 35,4 km/h (5 Bft) 95,74 %
20.09.2023 13:18 21,9 C 22,2 C 17,8 C 71 % 1008,6 hPa 0,0 l/m 0 min 0 min 262 W/m 22,5 km/h (4 Bft) 95,74 %
20.09.2023 13:20 22,0 C 22,2 C 17,8 C 71 % 1008,5 hPa 0,0 l/m 0 min 0 min 250 W/m 19,3 km/h (3 Bft) 93,48 %
20.09.2023 13:22 22,1 C 22,2 C 17,8 C 71 % 1008,6 hPa 0,0 l/m 0 min 0 min 257 W/m 19,3 km/h (3 Bft) 95,74 %
20.09.2023 13:24 22,1 C 22,2 C 17,8 C 71 % 1008,6 hPa 0,0 l/m 0 min 0 min 257 W/m 25,7 km/h (4 Bft) 93,62 %
20.09.2023 13:26 22,1 C 22,2 C 17,8 C 71 % 1008,6 hPa 0,0 l/m 0 min 0 min 253 W/m 29,0 km/h (5 Bft) 95,74 %
20.09.2023 13:28 22,1 C 22,2 C 17,8 C 70 % 1008,7 hPa 0,0 l/m 0 min 0 min 248 W/m 35,4 km/h (5 Bft) 95,74 %
20.09.2023 13:30 21,9 C 21,7 C 17,8 C 69 % 1008,6 hPa 0,0 l/m 0 min 0 min 288 W/m 38,6 km/h (5 Bft) 95,74 %
20.09.2023 13:32 21,9 C 21,7 C 17,8 C 69 % 1008,6 hPa 0,0 l/m 0 min 0 min 296 W/m 35,4 km/h (5 Bft) 95,74 %
20.09.2023 13:34 21,9 C 21,7 C 17,8 C 70 % 1008,5 hPa 0,0 l/m 0 min 0 min 296 W/m 25,7 km/h (4 Bft) 95,65 %
20.09.2023 13:36 21,9 C 21,7 C 17,8 C 70 % 1008,5 hPa 0,0 l/m 0 min 0 min 297 W/m 25,7 km/h (4 Bft) 95,74 %
20.09.2023 13:38 21,9 C 22,2 C 17,8 C 70 % 1008,5 hPa 0,0 l/m 0 min 0 min 301 W/m 22,5 km/h (4 Bft) 95,74 %
20.09.2023 13:40 21,9 C 22,2 C 17,8 C 70 % 1008,5 hPa 0,0 l/m 0 min 0 min 305 W/m 22,5 km/h (4 Bft) 93,62 %
20.09.2023 13:42 21,9 C 22,2 C 17,8 C 70 % 1008,5 hPa 0,0 l/m 0 min 0 min 286 W/m 32,2 km/h (5 Bft) 95,74 %
20.09.2023 13:44 22,0 C 22,2 C 17,8 C 70 % 1008,4 hPa 0,0 l/m 2 min 0 min 351 W/m 32,2 km/h (5 Bft) 95,74 %
20.09.2023 13:46 22,1 C 22,2 C 17,8 C 71 % 1008,4 hPa 0,0 l/m 2 min 0 min 373 W/m 32,2 km/h (5 Bft) 95,74 %
20.09.2023 13:48 22,1 C 22,2 C 17,8 C 70 % 1008,3 hPa 0,0 l/m 2 min 0 min 392 W/m 32,2 km/h (5 Bft) 97,87 %
20.09.2023 13:50 22,2 C 22,2 C 17,8 C 71 % 1008,3 hPa 0,0 l/m 2 min 0 min 499 W/m 22,5 km/h (4 Bft) 95,65 %
20.09.2023 13:52 22,3 C 22,8 C 17,8 C 71 % 1008,2 hPa 0,0 l/m 2 min 0 min 474 W/m 22,5 km/h (4 Bft) 100,00 %
20.09.2023 13:54 22,3 C 22,8 C 17,8 C 70 % 1008,2 hPa 0,0 l/m 2 min 0 min 411 W/m 25,7 km/h (4 Bft) 100,00 %
20.09.2023 13:56 22,3 C 22,2 C 17,8 C 70 % 1008,2 hPa 0,0 l/m 2 min 0 min 347 W/m 22,5 km/h (4 Bft) 100,00 %
20.09.2023 13:58 22,4 C 22,2 C 17,8 C 70 % 1008,2 hPa 0,0 l/m 2 min 0 min 356 W/m 19,3 km/h (3 Bft) 100,00 %
20.09.2023 14:00 22,4 C 22,2 C 17,8 C 70 % 1008,2 hPa 0,0 l/m 2 min 0 min 382 W/m 25,7 km/h (4 Bft) 97,87 %
20.09.2023 14:02 22,4 C 22,8 C 17,8 C 70 % 1008,1 hPa 0,0 l/m 2 min 0 min 391 W/m 16,1 km/h (3 Bft) 100,00 %
20.09.2023 14:04 22,4 C 22,8 C 17,8 C 70 % 1008,1 hPa 0,0 l/m 2 min 0 min 313 W/m 16,1 km/h (3 Bft) 100,00 %
20.09.2023 14:08 22,4 C 22,2 C 17,8 C 69 % 1008,0 hPa 0,0 l/m 0 min 0 min 274 W/m 29,0 km/h (5 Bft) 100,00 %
20.09.2023 14:09 22,3 C 22,2 C 17,8 C 69 % 1008,1 hPa 0,0 l/m 0 min 0 min 263 W/m 19,3 km/h (3 Bft) 100,00 %
20.09.2023 14:10 22,3 C 22,2 C 17,8 C 69 % 1008,1 hPa 0,0 l/m 0 min 0 min 265 W/m 29,0 km/h (5 Bft) 100,00 %
20.09.2023 14:14 22,3 C 22,2 C 17,8 C 70 % 1008,0 hPa 0,0 l/m 4 min 0 min 360 W/m 16,1 km/h (3 Bft) 100,00 %
20.09.2023 14:16 22,3 C 22,8 C 17,8 C 70 % 1007,9 hPa 0,0 l/m 2 min 0 min 401 W/m 25,7 km/h (4 Bft) 100,00 %
20.09.2023 14:18 22,3 C 22,8 C 17,8 C 70 % 1008,0 hPa 0,0 l/m 2 min 0 min 325 W/m 29,0 km/h (5 Bft) 97,83 %
20.09.2023 14:20 22,3 C 23,3 C 17,8 C 68 % 1007,9 hPa 0,0 l/m 2 min 0 min 405 W/m 51,5 km/h (7 Bft) 100,00 %
20.09.2023 14:22 22,3 C 22,8 C 17,8 C 66 % 1007,9 hPa 0,0 l/m 2 min 0 min 414 W/m 48,3 km/h (6 Bft) 100,00 %
20.09.2023 14:24 22,4 C 23,3 C 17,8 C 66 % 1007,8 hPa 0,0 l/m 2 min 0 min 400 W/m 29,0 km/h (5 Bft) 97,87 %
20.09.2023 14:26 22,4 C 22,8 C 17,8 C 66 % 1007,9 hPa 0,0 l/m 2 min 0 min 335 W/m 51,5 km/h (7 Bft) 100,00 %
20.09.2023 14:28 22,4 C 22,2 C 17,8 C 66 % 1007,8 hPa 0,0 l/m 0 min 0 min 263 W/m 29,0 km/h (5 Bft) 95,74 %
20.09.2023 14:30 22,4 C 22,2 C 17,8 C 66 % 1007,8 hPa 0,0 l/m 0 min 0 min 291 W/m 32,2 km/h (5 Bft) 97,87 %
20.09.2023 14:32 22,3 C 22,2 C 17,8 C 67 % 1008,0 hPa 0,0 l/m 0 min 0 min 283 W/m 32,2 km/h (5 Bft) 100,00 %
20.09.2023 14:34 22,3 C 22,2 C 17,8 C 66 % 1007,8 hPa 0,0 l/m 2 min 0 min 352 W/m 22,5 km/h (4 Bft) 97,87 %
20.09.2023 14:36 22,3 C 22,2 C 17,8 C 67 % 1007,8 hPa 0,0 l/m 2 min 0 min 364 W/m 38,6 km/h (5 Bft) 97,87 %
20.09.2023 14:38 22,3 C 22,2 C 17,8 C 67 % 1007,7 hPa 0,0 l/m 2 min 0 min 338 W/m 25,7 km/h (4 Bft) 97,87 %
20.09.2023 14:40 22,4 C 22,2 C 17,8 C 67 % 1007,7 hPa 0,0 l/m 0 min 0 min 261 W/m 25,7 km/h (4 Bft) 97,87 %
20.09.2023 14:42 22,4 C 22,2 C 17,8 C 68 % 1007,7 hPa 0,0 l/m 0 min 0 min 242 W/m 16,1 km/h (3 Bft) 97,87 %
20.09.2023 14:44 22,4 C 22,2 C 17,8 C 68 % 1007,7 hPa 0,0 l/m 0 min 0 min 244 W/m 32,2 km/h (5 Bft) 95,74 %
20.09.2023 14:46 22,4 C 22,2 C 17,8 C 68 % 1007,7 hPa 0,0 l/m 0 min 0 min 261 W/m 22,5 km/h (4 Bft) 97,87 %
20.09.2023 14:48 22,4 C 22,2 C 17,8 C 68 % 1007,7 hPa 0,0 l/m 2 min 0 min 350 W/m 32,2 km/h (5 Bft) 97,96 %
20.09.2023 14:50 22,4 C 22,8 C 17,8 C 68 % 1007,6 hPa 0,0 l/m 2 min 0 min 398 W/m 16,1 km/h (3 Bft) 97,87 %
20.09.2023 14:52 22,6 C 22,8 C 18,3 C 69 % 1007,6 hPa 0,0 l/m 2 min 0 min 496 W/m 22,5 km/h (4 Bft) 97,14 %
20.09.2023 14:54 22,6 C 22,8 C 18,3 C 69 % 1007,7 hPa 0,0 l/m 2 min 0 min 458 W/m 22,5 km/h (4 Bft) 97,87 %
20.09.2023 14:56 22,7 C 22,8 C 18,3 C 68 % 1007,6 hPa 0,0 l/m 2 min 0 min 444 W/m 25,7 km/h (4 Bft) 98,11 %
20.09.2023 14:58 22,7 C 22,8 C 18,3 C 67 % 1007,6 hPa 0,0 l/m 2 min 0 min 397 W/m 38,6 km/h (5 Bft) 95,24 %
20.09.2023 15:00 22,7 C 22,8 C 18,3 C 67 % 1007,5 hPa 0,0 l/m 2 min 0 min 402 W/m 29,0 km/h (5 Bft) 96,55 %
20.09.2023 15:02 22,8 C 22,8 C 18,3 C 68 % 1007,5 hPa 0,0 l/m 2 min 0 min 601 W/m 25,7 km/h (4 Bft) 100,00 %
20.09.2023 15:04 22,8 C 22,8 C 18,3 C 68 % 1007,5 hPa 0,0 l/m 2 min 0 min 581 W/m 25,7 km/h (4 Bft) 98,04 %
20.09.2023 15:08 22,9 C 22,8 C 18,3 C 68 % 1007,3 hPa 0,0 l/m 4 min 0 min 456 W/m 29,0 km/h (5 Bft) 96,88 %
20.09.2023 15:12 23,1 C 22,8 C 18,3 C 68 % 1007,3 hPa 0,0 l/m 4 min 0 min 464 W/m 19,3 km/h (3 Bft) 97,22 %
20.09.2023 15:14 23,1 C 22,8 C 18,3 C 67 % 1007,3 hPa 0,0 l/m 2 min 0 min 578 W/m 29,0 km/h (5 Bft) 93,48 %
20.09.2023 15:16 23,1 C 23,3 C 18,3 C 68 % 1007,2 hPa 0,0 l/m 2 min 0 min 668 W/m 22,5 km/h (4 Bft) 95,74 %
20.09.2023 15:18 23,2 C 23,3 C 18,9 C 69 % 1007,2 hPa 0,0 l/m 2 min 0 min 648 W/m 19,3 km/h (3 Bft) 97,87 %
20.09.2023 15:20 23,4 C 23,9 C 18,9 C 69 % 1007,2 hPa 0,0 l/m 2 min 0 min 612 W/m 25,7 km/h (4 Bft) 97,87 %
20.09.2023 15:22 23,4 C 23,3 C 18,9 C 67 % 1007,3 hPa 0,0 l/m 2 min 0 min 621 W/m 25,7 km/h (4 Bft) 97,87 %
20.09.2023 15:24 23,5 C 23,3 C 18,9 C 65 % 1007,3 hPa 0,0 l/m 2 min 0 min 621 W/m 25,7 km/h (4 Bft) 95,74 %
20.09.2023 15:26 23,5 C 23,3 C 18,9 C 65 % 1007,2 hPa 0,0 l/m 2 min 0 min 405 W/m 32,2 km/h (5 Bft) 97,87 %
20.09.2023 15:28 23,5 C 23,3 C 18,3 C 65 % 1007,1 hPa 0,0 l/m 2 min 0 min 394 W/m 16,1 km/h (3 Bft) 95,74 %
20.09.2023 15:30 23,5 C 23,3 C 18,3 C 64 % 1007,1 hPa 0,0 l/m 2 min 0 min 365 W/m 35,4 km/h (5 Bft) 97,83 %
20.09.2023 15:32 23,5 C 23,9 C 18,3 C 65 % 1007,1 hPa 0,0 l/m 2 min 0 min 571 W/m 25,7 km/h (4 Bft) 97,87 %
20.09.2023 15:34 23,5 C 23,3 C 18,3 C 64 % 1007,0 hPa 0,0 l/m 2 min 0 min 570 W/m 32,2 km/h (5 Bft) 97,87 %
20.09.2023 15:36 23,6 C 23,3 C 18,9 C 64 % 1007,0 hPa 0,0 l/m 2 min 0 min 582 W/m 29,0 km/h (5 Bft) 95,74 %
20.09.2023 15:38 23,6 C 23,3 C 18,9 C 64 % 1007,0 hPa 0,0 l/m 2 min 0 min 616 W/m 29,0 km/h (5 Bft) 97,87 %
20.09.2023 15:40 23,6 C 23,3 C 18,9 C 64 % 1007,0 hPa 0,0 l/m 2 min 0 min 503 W/m 25,7 km/h (4 Bft) 95,74 %
20.09.2023 15:42 23,6 C 23,3 C 18,9 C 65 % 1006,9 hPa 0,0 l/m 2 min 0 min 506 W/m 25,7 km/h (4 Bft) 97,87 %
20.09.2023 15:44 23,6 C 23,3 C 18,9 C 65 % 1006,9 hPa 0,0 l/m 2 min 0 min 498 W/m 22,5 km/h (4 Bft) 97,87 %
20.09.2023 15:46 23,6 C 23,3 C 18,3 C 65 % 1006,7 hPa 0,0 l/m 2 min 0 min 390 W/m 19,3 km/h (3 Bft) 97,83 %
20.09.2023 15:48 23,6 C 23,3 C 18,3 C 65 % 1006,8 hPa 0,0 l/m 2 min 0 min 382 W/m 19,3 km/h (3 Bft) 97,87 %
20.09.2023 15:50 23,6 C 23,3 C 18,3 C 64 % 1006,8 hPa 0,0 l/m 2 min 0 min 358 W/m 19,3 km/h (3 Bft) 97,87 %
20.09.2023 15:52 23,5 C 22,8 C 18,3 C 64 % 1006,8 hPa 0,0 l/m 2 min 0 min 380 W/m 35,4 km/h (5 Bft) 97,87 %
20.09.2023 15:54 23,4 C 22,8 C 18,3 C 65 % 1006,7 hPa 0,0 l/m 2 min 0 min 473 W/m 22,5 km/h (4 Bft) 97,87 %
20.09.2023 15:56 23,4 C 22,8 C 18,3 C 65 % 1006,7 hPa 0,0 l/m 2 min 0 min 469 W/m 22,5 km/h (4 Bft) 97,96 %
20.09.2023 15:58 23,4 C 23,3 C 18,3 C 65 % 1006,7 hPa 0,0 l/m 2 min 0 min 456 W/m 22,5 km/h (4 Bft) 100,00 %
20.09.2023 16:00 23,5 C 23,3 C 18,3 C 64 % 1006,8 hPa 0,0 l/m 2 min 0 min 464 W/m 25,7 km/h (4 Bft) 97,87 %
20.09.2023 16:02 23,5 C 23,3 C 18,9 C 64 % 1006,8 hPa 0,0 l/m 2 min 0 min 515 W/m 29,0 km/h (5 Bft) 97,87 %
20.09.2023 16:04 23,6 C 23,3 C 18,9 C 65 % 1006,7 hPa 0,0 l/m 2 min 0 min 571 W/m 16,1 km/h (3 Bft) 95,83 %
20.09.2023 16:08 23,7 C 23,3 C 18,9 C 64 % 1006,6 hPa 0,0 l/m 4 min 0 min 552 W/m 22,5 km/h (4 Bft) 100,00 %
20.09.2023 16:12 23,8 C 23,3 C 18,9 C 64 % 1006,6 hPa 0,0 l/m 4 min 0 min 546 W/m 19,3 km/h (3 Bft) 100,00 %
20.09.2023 16:14 23,8 C 23,3 C 18,9 C 64 % 1006,6 hPa 0,0 l/m 2 min 0 min 501 W/m 25,7 km/h (4 Bft) 97,87 %
20.09.2023 16:16 23,9 C 23,3 C 18,9 C 64 % 1006,6 hPa 0,0 l/m 2 min 0 min 493 W/m 22,5 km/h (4 Bft) 96,30 %
20.09.2023 16:18 23,9 C 23,9 C 18,9 C 64 % 1006,5 hPa 0,0 l/m 2 min 0 min 544 W/m 12,9 km/h (3 Bft) 100,00 %
20.09.2023 16:20 24,0 C 23,9 C 18,9 C 64 % 1006,5 hPa 0,0 l/m 2 min 0 min 545 W/m 16,1 km/h (3 Bft) 100,00 %
20.09.2023 16:22 24,1 C 23,9 C 18,9 C 64 % 1006,5 hPa 0,0 l/m 2 min 0 min 542 W/m 32,2 km/h (5 Bft) 97,87 %
20.09.2023 16:24 24,1 C 23,9 C 19,4 C 64 % 1006,5 hPa 0,0 l/m 2 min 0 min 534 W/m 19,3 km/h (3 Bft) 97,87 %
20.09.2023 16:26 24,1 C 23,9 C 19,4 C 64 % 1006,4 hPa 0,0 l/m 2 min 0 min 503 W/m 19,3 km/h (3 Bft) 97,87 %
20.09.2023 16:28 24,1 C 23,3 C 18,9 C 63 % 1006,4 hPa 0,0 l/m 2 min 0 min 430 W/m 22,5 km/h (4 Bft) 97,87 %
20.09.2023 16:30 24,2 C 23,3 C 18,9 C 64 % 1006,3 hPa 0,0 l/m 2 min 0 min 461 W/m 22,5 km/h (4 Bft) 100,00 %
20.09.2023 16:34 24,1 C 23,3 C 18,9 C 63 % 1006,4 hPa 0,0 l/m 4 min 0 min 480 W/m 48,3 km/h (6 Bft) 97,50 %
20.09.2023 16:36 24,1 C 23,3 C 18,9 C 63 % 1006,3 hPa 0,0 l/m 2 min 0 min 449 W/m 12,9 km/h (3 Bft) 93,62 %
20.09.2023 16:38 24,1 C 23,3 C 18,9 C 63 % 1006,2 hPa 0,0 l/m 2 min 0 min 439 W/m 16,1 km/h (3 Bft) 97,87 %
20.09.2023 16:40 24,1 C 23,3 C 18,9 C 63 % 1006,2 hPa 0,0 l/m 2 min 0 min 438 W/m 22,5 km/h (4 Bft) 97,83 %
20.09.2023 16:42 24,1 C 23,3 C 18,9 C 64 % 1006,1 hPa 0,0 l/m 2 min 0 min 443 W/m 19,3 km/h (3 Bft) 96,36 %
20.09.2023 16:44 24,2 C 23,3 C 18,9 C 64 % 1006,2 hPa 0,0 l/m 2 min 0 min 437 W/m 19,3 km/h (3 Bft) 97,92 %
20.09.2023 16:46 24,2 C 23,3 C 18,9 C 63 % 1006,1 hPa 0,0 l/m 2 min 0 min 431 W/m 19,3 km/h (3 Bft) 97,87 %
20.09.2023 16:48 24,2 C 23,3 C 18,9 C 64 % 1006,1 hPa 0,0 l/m 2 min 0 min 426 W/m 25,7 km/h (4 Bft) 97,87 %
20.09.2023 16:50 24,2 C 23,3 C 18,9 C 64 % 1006,1 hPa 0,0 l/m 2 min 0 min 410 W/m 32,2 km/h (5 Bft) 93,62 %
20.09.2023 16:52 24,2 C 23,3 C 18,9 C 63 % 1006,1 hPa 0,0 l/m 2 min 0 min 346 W/m 25,7 km/h (4 Bft) 97,87 %
20.09.2023 16:54 24,2 C 23,3 C 18,9 C 63 % 1006,1 hPa 0,0 l/m 2 min 0 min 355 W/m 29,0 km/h (5 Bft) 97,96 %
20.09.2023 16:56 24,1 C 23,3 C 18,9 C 63 % 1006,1 hPa 0,0 l/m 2 min 0 min 393 W/m 25,7 km/h (4 Bft) 97,92 %
20.09.2023 16:58 24,1 C 23,3 C 18,9 C 63 % 1006,0 hPa 0,0 l/m 2 min 0 min 414 W/m 19,3 km/h (3 Bft) 97,67 %
20.09.2023 17:00 24,1 C 23,3 C 18,9 C 64 % 1006,0 hPa 0,0 l/m 2 min 0 min 402 W/m 22,5 km/h (4 Bft) 97,87 %
20.09.2023 17:02 24,1 C 23,3 C 18,9 C 64 % 1006,0 hPa 0,0 l/m 2 min 0 min 376 W/m 16,1 km/h (3 Bft) 91,49 %
20.09.2023 17:04 24,1 C 23,3 C 18,9 C 64 % 1006,0 hPa 0,0 l/m 2 min 0 min 336 W/m 22,5 km/h (4 Bft) 96,00 %
20.09.2023 17:08 24,1 C 23,3 C 18,3 C 65 % 1005,9 hPa 0,0 l/m 4 min 0 min 275 W/m 25,7 km/h (4 Bft) 96,84 %
20.09.2023 17:12 24,0 C 23,3 C 18,3 C 65 % 1005,9 hPa 0,0 l/m 4 min 0 min 342 W/m 6,4 km/h (2 Bft) 97,14 %
20.09.2023 17:14 24,0 C 23,3 C 18,3 C 65 % 1005,9 hPa 0,0 l/m 2 min 0 min 331 W/m 16,1 km/h (3 Bft) 97,87 %
20.09.2023 17:16 24,0 C 23,9 C 18,3 C 65 % 1005,8 hPa 0,0 l/m 2 min 0 min 342 W/m 16,1 km/h (3 Bft) 95,74 %
20.09.2023 17:18 24,0 C 23,9 C 18,3 C 65 % 1005,9 hPa 0,0 l/m 2 min 0 min 353 W/m 32,2 km/h (5 Bft) 97,87 %
20.09.2023 17:20 24,1 C 23,9 C 18,3 C 66 % 1005,9 hPa 0,0 l/m 2 min 0 min 342 W/m 16,1 km/h (3 Bft) 95,65 %
20.09.2023 17:22 24,1 C 24,4 C 18,3 C 65 % 1005,9 hPa 0,0 l/m 2 min 0 min 342 W/m 19,3 km/h (3 Bft) 95,74 %
20.09.2023 17:24 24,1 C 25,0 C 18,3 C 65 % 1005,8 hPa 0,0 l/m 2 min 0 min 323 W/m 29,0 km/h (5 Bft) 95,74 %
20.09.2023 17:26 24,1 C 25,6 C 18,3 C 66 % 1005,8 hPa 0,0 l/m 2 min 0 min 298 W/m 12,9 km/h (3 Bft) 94,34 %
20.09.2023 17:28 24,1 C 26,1 C 18,3 C 66 % 1005,7 hPa 0,0 l/m 2 min 0 min 317 W/m 12,9 km/h (3 Bft) 95,12 %
20.09.2023 17:30 24,1 C 26,7 C 18,3 C 66 % 1005,7 hPa 0,0 l/m 2 min 0 min 303 W/m 6,4 km/h (2 Bft) 93,62 %
20.09.2023 17:32 24,2 C 26,7 C 18,3 C 66 % 1005,7 hPa 0,0 l/m 2 min 0 min 307 W/m 12,9 km/h (3 Bft) 93,62 %
20.09.2023 17:34 24,2 C 26,7 C 18,3 C 66 % 1005,6 hPa 0,0 l/m 2 min 0 min 305 W/m 12,9 km/h (3 Bft) 95,65 %
20.09.2023 17:36 24,3 C 26,7 C 18,9 C 65 % 1005,6 hPa 0,0 l/m 2 min 0 min 277 W/m 16,1 km/h (3 Bft) 93,62 %
20.09.2023 17:38 24,3 C 26,1 C 18,9 C 65 % 1005,6 hPa 0,0 l/m 2 min 0 min 209 W/m 16,1 km/h (3 Bft) 93,62 %
20.09.2023 17:40 24,3 C 25,6 C 18,3 C 65 % 1005,5 hPa 0,0 l/m 2 min 0 min 182 W/m 16,1 km/h (3 Bft) 95,74 %
20.09.2023 17:42 24,2 C 26,1 C 18,9 C 65 % 1005,5 hPa 0,0 l/m 2 min 0 min 231 W/m 19,3 km/h (3 Bft) 95,74 %
20.09.2023 17:44 24,2 C 26,1 C 18,9 C 65 % 1005,5 hPa 0,0 l/m 2 min 0 min 226 W/m 29,0 km/h (5 Bft) 95,74 %
20.09.2023 17:46 24,2 C 26,1 C 18,3 C 64 % 1005,5 hPa 0,0 l/m 2 min 0 min 234 W/m 16,1 km/h (3 Bft) 97,87 %
20.09.2023 17:48 24,2 C 25,6 C 18,3 C 64 % 1005,4 hPa 0,0 l/m 2 min 0 min 208 W/m 35,4 km/h (5 Bft) 93,48 %
20.09.2023 17:50 24,2 C 26,1 C 18,3 C 65 % 1005,5 hPa 0,0 l/m 2 min 0 min 224 W/m 12,9 km/h (3 Bft) 97,87 %
20.09.2023 17:52 24,2 C 25,6 C 18,3 C 64 % 1005,5 hPa 0,0 l/m 2 min 0 min 213 W/m 12,9 km/h (3 Bft) 97,87 %
20.09.2023 17:54 24,2 C 25,6 C 18,3 C 65 % 1005,4 hPa 0,0 l/m 2 min 0 min 213 W/m 6,4 km/h (2 Bft) 97,87 %
20.09.2023 17:56 24,2 C 25,0 C 18,3 C 65 % 1005,4 hPa 0,0 l/m 2 min 0 min 152 W/m 9,7 km/h (2 Bft) 96,23 %
20.09.2023 17:58 24,2 C 24,4 C 18,3 C 65 % 1005,4 hPa 0,0 l/m 2 min 0 min 125 W/m 6,4 km/h (2 Bft) 95,45 %
20.09.2023 18:00 24,2 C 23,9 C 18,3 C 65 % 1005,4 hPa 0,0 l/m 2 min 0 min 125 W/m 12,9 km/h (3 Bft) 100,00 %
20.09.2023 18:02 24,1 C 23,3 C 18,3 C 65 % 1005,4 hPa 0,0 l/m 0 min 0 min 108 W/m 12,9 km/h (3 Bft) 100,00 %
20.09.2023 18:04 24,1 C 23,3 C 18,3 C 65 % 1005,4 hPa 0,0 l/m 0 min 0 min 93 W/m 16,1 km/h (3 Bft) 97,78 %
20.09.2023 18:08 23,9 C 23,3 C 18,3 C 65 % 1005,4 hPa 0,0 l/m 0 min 0 min 105 W/m 12,9 km/h (3 Bft) 98,94 %
20.09.2023 18:10 23,9 C 23,3 C 18,3 C 66 % 1005,4 hPa 0,0 l/m 0 min 0 min 96 W/m 12,9 km/h (3 Bft) 100,00 %
20.09.2023 18:12 23,9 C 23,3 C 18,3 C 66 % 1005,3 hPa 0,0 l/m 0 min 0 min 105 W/m 6,4 km/h (2 Bft) 100,00 %
20.09.2023 18:16 23,8 C 23,3 C 18,3 C 66 % 1005,2 hPa 0,0 l/m 4 min 0 min 103 W/m 12,9 km/h (3 Bft) 100,00 %
20.09.2023 18:18 23,8 C 23,3 C 18,3 C 67 % 1005,2 hPa 0,0 l/m 0 min 0 min 73 W/m 6,4 km/h (2 Bft) 97,87 %
20.09.2023 18:20 23,8 C 22,8 C 18,3 C 67 % 1005,2 hPa 0,0 l/m 0 min 0 min 53 W/m 9,7 km/h (2 Bft) 100,00 %
20.09.2023 18:22 23,7 C 22,8 C 17,8 C 68 % 1005,3 hPa 0,0 l/m 0 min 0 min 44 W/m 6,4 km/h (2 Bft) 100,00 %
20.09.2023 18:24 23,6 C 22,2 C 17,8 C 67 % 1005,3 hPa 0,0 l/m 0 min 0 min 42 W/m 6,4 km/h (2 Bft) 100,00 %
20.09.2023 18:26 23,5 C 22,2 C 17,8 C 68 % 1005,3 hPa 0,0 l/m 0 min 0 min 42 W/m 12,9 km/h (3 Bft) 100,00 %
20.09.2023 18:28 23,4 C 22,2 C 17,8 C 67 % 1005,3 hPa 0,0 l/m 0 min 0 min 44 W/m 12,9 km/h (3 Bft) 100,00 %
20.09.2023 18:30 23,3 C 22,2 C 17,8 C 67 % 1005,4 hPa 0,0 l/m 0 min 0 min 46 W/m 12,9 km/h (3 Bft) 100,00 %
20.09.2023 18:32 23,3 C 22,2 C 17,8 C 67 % 1005,4 hPa 0,0 l/m 0 min 0 min 42 W/m 22,5 km/h (4 Bft) 97,87 %
20.09.2023 18:34 23,2 C 22,2 C 17,8 C 67 % 1005,4 hPa 0,0 l/m 0 min 0 min 41 W/m 12,9 km/h (3 Bft) 100,00 %
20.09.2023 18:36 23,1 C 22,2 C 17,8 C 67 % 1005,4 hPa 0,0 l/m 0 min 0 min 39 W/m 9,7 km/h (2 Bft) 100,00 %
20.09.2023 18:38 23,1 C 21,7 C 17,8 C 67 % 1005,4 hPa 0,0 l/m 0 min 0 min 39 W/m 12,9 km/h (3 Bft) 100,00 %
20.09.2023 18:40 23,0 C 21,7 C 17,8 C 67 % 1005,4 hPa 0,0 l/m 0 min 0 min 38 W/m 16,1 km/h (3 Bft) 100,00 %
20.09.2023 18:42 22,9 C 21,7 C 17,8 C 67 % 1005,3 hPa 0,0 l/m 0 min 0 min 36 W/m 12,9 km/h (3 Bft) 100,00 %
20.09.2023 18:44 22,8 C 21,7 C 17,8 C 67 % 1005,3 hPa 0,0 l/m 0 min 0 min 35 W/m 16,1 km/h (3 Bft) 100,00 %
20.09.2023 18:46 22,8 C 21,7 C 17,2 C 67 % 1005,3 hPa 0,0 l/m 0 min 0 min 35 W/m 9,7 km/h (2 Bft) 100,00 %
20.09.2023 18:48 22,7 C 21,7 C 17,8 C 67 % 1005,4 hPa 0,0 l/m 0 min 0 min 35 W/m 29,0 km/h (5 Bft) 100,00 %
20.09.2023 18:50 22,7 C 21,7 C 17,8 C 67 % 1005,2 hPa 0,0 l/m 0 min 0 min 33 W/m 6,4 km/h (2 Bft) 100,00 %
20.09.2023 18:52 22,7 C 21,7 C 17,2 C 67 % 1005,2 hPa 0,0 l/m 0 min 0 min 33 W/m 16,1 km/h (3 Bft) 100,00 %
20.09.2023 18:54 22,7 C 21,7 C 17,8 C 67 % 1005,2 hPa 0,0 l/m 0 min 0 min 33 W/m 12,9 km/h (3 Bft) 100,00 %
20.09.2023 18:56 22,7 C 22,2 C 17,8 C 67 % 1005,2 hPa 0,0 l/m 0 min 0 min 33 W/m 3,2 km/h (1 Bft) 100,00 %
20.09.2023 18:58 22,7 C 21,7 C 17,2 C 67 % 1005,2 hPa 0,0 l/m 0 min 0 min 33 W/m 3,2 km/h (1 Bft) 100,00 %
20.09.2023 19:00 22,7 C 21,7 C 17,2 C 67 % 1005,2 hPa 0,0 l/m 0 min 0 min 33 W/m 6,4 km/h (2 Bft) 100,00 %
20.09.2023 19:02 22,7 C 21,7 C 17,2 C 67 % 1005,2 hPa 0,0 l/m 0 min 0 min 33 W/m 9,7 km/h (2 Bft) 100,00 %
20.09.2023 19:04 22,7 C 21,7 C 17,2 C 67 % 1005,2 hPa 0,0 l/m 0 min 0 min 32 W/m 6,4 km/h (2 Bft) 100,00 %
20.09.2023 19:08 22,6 C 21,7 C 17,2 C 68 % 1005,1 hPa 0,0 l/m 0 min 0 min 31 W/m 3,2 km/h (1 Bft) 100,00 %
20.09.2023 19:09 22,6 C 21,7 C 17,2 C 68 % 1005,2 hPa 0,0 l/m 0 min 0 min 28 W/m 6,4 km/h (2 Bft) 95,65 %
20.09.2023 19:10 22,6 C 21,7 C 17,2 C 68 % 1005,2 hPa 0,0 l/m 0 min 0 min 29 W/m 6,4 km/h (2 Bft) 100,00 %
20.09.2023 19:14 22,5 C 21,1 C 17,2 C 68 % 1005,1 hPa 0,0 l/m 4 min 0 min 25 W/m 6,4 km/h (2 Bft) 100,00 %
20.09.2023 19:16 22,4 C 21,1 C 16,7 C 68 % 1005,0 hPa 0,0 l/m 2 min 0 min 23 W/m 6,4 km/h (2 Bft) 100,00 %
20.09.2023 19:18 22,4 C 21,1 C 16,7 C 68 % 1005,0 hPa 0,0 l/m 2 min 0 min 20 W/m 6,4 km/h (2 Bft) 100,00 %
20.09.2023 19:20 22,3 C 21,1 C 16,7 C 68 % 1005,0 hPa 0,0 l/m 0 min 0 min 19 W/m 6,4 km/h (2 Bft) 97,87 %
20.09.2023 19:22 22,3 C 21,1 C 16,7 C 68 % 1004,9 hPa 0,0 l/m 0 min 0 min 17 W/m 6,4 km/h (2 Bft) 100,00 %
20.09.2023 19:24 22,3 C 21,1 C 16,7 C 68 % 1004,9 hPa 0,0 l/m 0 min 0 min 14 W/m 6,4 km/h (2 Bft) 97,83 %
20.09.2023 19:26 22,2 C 21,1 C 16,7 C 69 % 1004,9 hPa 0,0 l/m 0 min 0 min 12 W/m 3,2 km/h (1 Bft) 95,74 %
20.09.2023 19:28 22,2 C 20,6 C 16,7 C 69 % 1004,8 hPa 0,0 l/m 0 min 0 min 11 W/m 3,2 km/h (1 Bft) 95,74 %
20.09.2023 19:30 22,2 C 20,6 C 16,7 C 69 % 1004,8 hPa 0,0 l/m 0 min 0 min 9 W/m 3,2 km/h (1 Bft) 95,74 %
20.09.2023 19:32 22,1 C 20,6 C 16,7 C 70 % 1004,7 hPa 0,0 l/m 0 min 0 min 7 W/m 3,2 km/h (1 Bft) 93,62 %
20.09.2023 19:34 22,1 C 20,6 C 16,7 C 70 % 1004,7 hPa 0,0 l/m 0 min 0 min 6 W/m 3,2 km/h (1 Bft) 95,74 %
20.09.2023 19:36 22,1 C 20,6 C 16,7 C 70 % 1004,8 hPa 0,0 l/m 0 min 0 min 3 W/m 6,4 km/h (2 Bft) 93,62 %
20.09.2023 19:38 22,0 C 20,6 C 16,7 C 70 % 1004,7 hPa 0,0 l/m 0 min 0 min 0 W/m 3,2 km/h (1 Bft) 91,30 %
20.09.2023 19:40 21,9 C 20,6 C 16,1 C 70 % 1004,7 hPa 0,0 l/m 0 min 0 min 0 W/m 3,2 km/h (1 Bft) 89,36 %
20.09.2023 19:42 21,9 C 20,6 C 16,1 C 70 % 1004,7 hPa 0,0 l/m 0 min 0 min 0 W/m 6,4 km/h (2 Bft) 93,62 %
20.09.2023 19:44 21,8 C 20,0 C 16,1 C 71 % 1004,7 hPa 0,0 l/m 0 min 0 min 0 W/m 6,4 km/h (2 Bft) 94,12 %
20.09.2023 19:46 21,8 C 20,0 C 16,1 C 71 % 1004,7 hPa 0,0 l/m 0 min 0 min 0 W/m 6,4 km/h (2 Bft) 91,30 %
20.09.2023 19:48 21,8 C 20,0 C 16,1 C 71 % 1004,7 hPa 0,0 l/m 0 min 0 min 0 W/m 3,2 km/h (1 Bft) 93,62 %
20.09.2023 19:50 21,7 C 20,0 C 16,1 C 71 % 1004,7 hPa 0,0 l/m 0 min 0 min 0 W/m 3,2 km/h (1 Bft) 93,62 %
20.09.2023 19:52 21,7 C 20,0 C 16,1 C 72 % 1004,8 hPa 0,0 l/m 0 min 0 min 0 W/m 6,4 km/h (2 Bft) 93,62 %
20.09.2023 19:54 21,6 C 20,0 C 16,1 C 72 % 1004,8 hPa 0,0 l/m 0 min 0 min 0 W/m 3,2 km/h (1 Bft) 91,49 %
20.09.2023 19:56 21,6 C 20,0 C 16,1 C 72 % 1004,7 hPa 0,0 l/m 0 min 0 min 0 W/m 6,4 km/h (2 Bft) 92,00 %
20.09.2023 19:58 21,5 C 20,0 C 16,1 C 72 % 1004,8 hPa 0,0 l/m 0 min 0 min 0 W/m 6,4 km/h (2 Bft) 95,56 %
20.09.2023 20:00 21,4 C 20,0 C 16,1 C 72 % 1004,8 hPa 0,0 l/m 0 min 0 min 0 W/m 12,9 km/h (3 Bft) 95,74 %
20.09.2023 20:02 21,4 C 20,0 C 16,1 C 72 % 1004,7 hPa 0,0 l/m 0 min 0 min 0 W/m 6,4 km/h (2 Bft) 95,74 %
20.09.2023 20:04 21,3 C 20,0 C 16,1 C 72 % 1004,8 hPa 0,0 l/m 0 min 0 min 0 W/m 6,4 km/h (2 Bft) 95,12 %
20.09.2023 20:08 21,3 C 19,4 C 16,1 C 72 % 1004,8 hPa 0,0 l/m 0 min 0 min 0 W/m 6,4 km/h (2 Bft) 94,85 %
20.09.2023 20:12 21,2 C 19,4 C 16,1 C 73 % 1004,8 hPa 0,0 l/m 0 min 0 min 0 W/m 3,2 km/h (1 Bft) 100,00 %
20.09.2023 20:14 21,1 C 19,4 C 15,6 C 73 % 1004,8 hPa 0,0 l/m 0 min 0 min 0 W/m 3,2 km/h (1 Bft) 95,65 %
20.09.2023 20:16 21,1 C 19,4 C 15,6 C 73 % 1004,8 hPa 0,0 l/m 0 min 0 min 0 W/m 3,2 km/h (1 Bft) 97,87 %
20.09.2023 20:18 21,1 C 19,4 C 15,6 C 73 % 1004,8 hPa 0,0 l/m 0 min 0 min 0 W/m 0,0 km/h (0 Bft) 97,87 %
20.09.2023 20:20 21,0 C 19,4 C 15,6 C 73 % 1004,8 hPa 0,0 l/m 0 min 0 min 0 W/m 0,0 km/h (0 Bft) 97,87 %
20.09.2023 20:22 21,0 C 19,4 C 15,6 C 73 % 1004,8 hPa 0,0 l/m 0 min 0 min 0 W/m 0,0 km/h (0 Bft) 100,00 %
20.09.2023 20:24 20,9 C 19,4 C 15,6 C 73 % 1004,8 hPa 0,0 l/m 0 min 0 min 0 W/m 3,2 km/h (1 Bft) 100,00 %
20.09.2023 20:26 20,9 C 19,4 C 15,0 C 74 % 1004,7 hPa 0,0 l/m 0 min 0 min 0 W/m 0,0 km/h (0 Bft) 100,00 %
20.09.2023 20:28 20,8 C 18,9 C 15,0 C 74 % 1004,8 hPa 0,0 l/m 0 min 0 min 0 W/m 3,2 km/h (1 Bft) 100,00 %
20.09.2023 20:30 20,8 C 18,9 C 15,0 C 74 % 1004,8 hPa 0,0 l/m 0 min 0 min 0 W/m 3,2 km/h (1 Bft) 97,87 %
20.09.2023 20:32 20,7 C 18,9 C 15,0 C 74 % 1004,8 hPa 0,0 l/m 0 min 0 min 0 W/m 3,2 km/h (1 Bft) 100,00 %
20.09.2023 20:34 20,7 C 18,9 C 15,0 C 74 % 1004,7 hPa 0,0 l/m 0 min 0 min 0 W/m 3,2 km/h (1 Bft) 100,00 %
20.09.2023 20:36 20,6 C 18,9 C 15,0 C 74 % 1004,7 hPa 0,0 l/m 0 min 0 min 0 W/m 3,2 km/h (1 Bft) 100,00 %
20.09.2023 20:38 20,6 C 18,9 C 15,0 C 74 % 1004,8 hPa 0,0 l/m 0 min 0 min 0 W/m 3,2 km/h (1 Bft) 97,87 %
20.09.2023 20:40 20,6 C 18,9 C 15,0 C 74 % 1004,8 hPa 0,0 l/m 0 min 0 min 0 W/m 6,4 km/h (2 Bft) 100,00 %
20.09.2023 20:42 20,5 C 18,9 C 15,0 C 74 % 1004,8 hPa 0,0 l/m 0 min 0 min 0 W/m 6,4 km/h (2 Bft) 100,00 %
20.09.2023 20:44 20,4 C 18,9 C 15,0 C 74 % 1004,8 hPa 0,0 l/m 0 min 0 min 0 W/m 6,4 km/h (2 Bft) 100,00 %
20.09.2023 20:48 20,3 C 18,9 C 15,0 C 74 % 1004,8 hPa 0,0 l/m 0 min 0 min 0 W/m 0,0 km/h (0 Bft) 97,35 %
20.09.2023 20:50 20,3 C 18,9 C 15,0 C 74 % 1004,8 hPa 0,0 l/m 0 min 0 min 0 W/m 3,2 km/h (1 Bft) 100,00 %
20.09.2023 20:52 20,3 C 18,9 C 15,0 C 74 % 1004,9 hPa 0,0 l/m 0 min 0 min 0 W/m 3,2 km/h (1 Bft) 100,00 %
20.09.2023 20:54 20,2 C 18,9 C 15,0 C 74 % 1004,9 hPa 0,0 l/m 0 min 0 min 0 W/m 6,4 km/h (2 Bft) 100,00 %
20.09.2023 20:56 20,2 C 18,9 C 15,0 C 74 % 1004,9 hPa 0,0 l/m 0 min 0 min 0 W/m 6,4 km/h (2 Bft) 100,00 %
20.09.2023 20:58 20,2 C 18,9 C 15,0 C 75 % 1004,8 hPa 0,0 l/m 0 min 0 min 0 W/m 3,2 km/h (1 Bft) 100,00 %
20.09.2023 21:00 20,1 C 18,9 C 15,0 C 75 % 1004,8 hPa 0,0 l/m 0 min 0 min 0 W/m 6,4 km/h (2 Bft) 100,00 %
20.09.2023 21:02 20,1 C 18,9 C 15,0 C 75 % 1004,9 hPa 0,0 l/m 0 min 0 min 0 W/m 3,2 km/h (1 Bft) 100,00 %
20.09.2023 21:04 20,1 C 18,9 C 15,0 C 75 % 1004,9 hPa 0,0 l/m 0 min 0 min 0 W/m 3,2 km/h (1 Bft) 100,00 %
20.09.2023 21:08 19,9 C 18,9 C 15,0 C 75 % 1004,9 hPa 0,0 l/m 0 min 0 min 0 W/m 6,4 km/h (2 Bft) 97,87 %
20.09.2023 21:12 19,9 C 18,9 C 15,0 C 75 % 1004,9 hPa 0,0 l/m 0 min 0 min 0 W/m 3,2 km/h (1 Bft) 97,22 %
20.09.2023 21:14 19,9 C 18,9 C 15,0 C 75 % 1005,0 hPa 0,0 l/m 0 min 0 min 0 W/m 6,4 km/h (2 Bft) 100,00 %
20.09.2023 21:16 19,8 C 18,9 C 15,0 C 75 % 1004,9 hPa 0,0 l/m 0 min 0 min 0 W/m 3,2 km/h (1 Bft) 100,00 %
20.09.2023 21:18 19,8 C 18,9 C 15,0 C 76 % 1004,9 hPa 0,0 l/m 0 min 0 min 0 W/m 6,4 km/h (2 Bft) 95,74 %
20.09.2023 21:20 19,8 C 18,9 C 15,0 C 76 % 1004,9 hPa 0,0 l/m 0 min 0 min 0 W/m 12,9 km/h (3 Bft) 97,87 %
20.09.2023 21:22 19,8 C 18,3 C 15,0 C 76 % 1004,9 hPa 0,0 l/m 0 min 0 min 0 W/m 6,4 km/h (2 Bft) 95,65 %
20.09.2023 21:24 19,7 C 18,3 C 15,0 C 76 % 1004,9 hPa 0,0 l/m 0 min 0 min 0 W/m 0,0 km/h (0 Bft) 100,00 %
20.09.2023 21:26 19,7 C 18,3 C 15,0 C 76 % 1004,9 hPa 0,0 l/m 0 min 0 min 0 W/m 3,2 km/h (1 Bft) 97,87 %
20.09.2023 21:28 19,7 C 18,3 C 15,0 C 76 % 1004,9 hPa 0,0 l/m 0 min 0 min 0 W/m 3,2 km/h (1 Bft) 97,87 %
20.09.2023 21:30 19,6 C 18,3 C 15,0 C 76 % 1004,9 hPa 0,0 l/m 0 min 0 min 0 W/m 3,2 km/h (1 Bft) 97,87 %
20.09.2023 21:32 19,6 C 18,3 C 15,0 C 76 % 1004,9 hPa 0,0 l/m 0 min 0 min 0 W/m 3,2 km/h (1 Bft) 97,87 %
20.09.2023 21:34 19,6 C 18,3 C 15,0 C 76 % 1004,9 hPa 0,0 l/m 0 min 0 min 0 W/m 6,4 km/h (2 Bft) 97,87 %
20.09.2023 21:36 19,6 C 18,3 C 15,0 C 76 % 1004,8 hPa 0,0 l/m 0 min 0 min 0 W/m 6,4 km/h (2 Bft) 97,83 %
20.09.2023 21:38 19,6 C 18,3 C 15,0 C 76 % 1004,9 hPa 0,0 l/m 0 min 0 min 0 W/m 6,4 km/h (2 Bft) 97,87 %
20.09.2023 21:40 19,5 C 18,3 C 15,0 C 76 % 1004,8 hPa 0,0 l/m 0 min 0 min 0 W/m 3,2 km/h (1 Bft) 97,87 %
20.09.2023 21:42 19,5 C 18,3 C 15,0 C 76 % 1004,8 hPa 0,0 l/m 0 min 0 min 0 W/m 6,4 km/h (2 Bft) 95,74 %
20.09.2023 21:44 19,5 C 18,3 C 15,0 C 76 % 1004,8 hPa 0,0 l/m 0 min 0 min 0 W/m 12,9 km/h (3 Bft) 97,87 %
20.09.2023 21:46 19,4 C 18,3 C 15,0 C 76 % 1004,8 hPa 0,0 l/m 0 min 0 min 0 W/m 3,2 km/h (1 Bft) 95,74 %
20.09.2023 21:48 19,4 C 18,3 C 15,0 C 76 % 1004,8 hPa 0,0 l/m 0 min 0 min 0 W/m 6,4 km/h (2 Bft) 95,74 %
20.09.2023 21:50 19,4 C 18,3 C 15,0 C 76 % 1004,8 hPa 0,0 l/m 0 min 0 min 0 W/m 6,4 km/h (2 Bft) 100,00 %
20.09.2023 21:52 19,4 C 18,3 C 15,0 C 77 % 1004,8 hPa 0,0 l/m 0 min 0 min 0 W/m 12,9 km/h (3 Bft) 100,00 %
20.09.2023 21:54 19,4 C 18,3 C 15,0 C 76 % 1004,8 hPa 0,0 l/m 0 min 0 min 0 W/m 12,9 km/h (3 Bft) 100,00 %
20.09.2023 21:56 19,4 C 18,3 C 15,0 C 77 % 1004,8 hPa 0,0 l/m 0 min 0 min 0 W/m 6,4 km/h (2 Bft) 95,74 %
20.09.2023 21:58 19,3 C 18,3 C 15,0 C 77 % 1004,7 hPa 0,0 l/m 0 min 0 min 0 W/m 6,4 km/h (2 Bft) 100,00 %
20.09.2023 22:00 19,3 C 18,3 C 15,0 C 77 % 1004,7 hPa 0,0 l/m 0 min 0 min 0 W/m 6,4 km/h (2 Bft) 100,00 %
20.09.2023 22:02 19,3 C 18,3 C 15,0 C 77 % 1004,6 hPa 0,0 l/m 0 min 0 min 0 W/m 6,4 km/h (2 Bft) 100,00 %
20.09.2023 22:04 19,3 C 18,3 C 15,0 C 77 % 1004,6 hPa 0,0 l/m 0 min 0 min 0 W/m 6,4 km/h (2 Bft) 100,00 %
20.09.2023 22:08 19,3 C 18,3 C 15,0 C 77 % 1004,6 hPa 0,0 l/m 0 min 0 min 0 W/m 6,4 km/h (2 Bft) 96,08 %
20.09.2023 22:10 19,3 C 18,3 C 15,0 C 77 % 1004,6 hPa 0,0 l/m 0 min 0 min 0 W/m 6,4 km/h (2 Bft) 97,87 %
20.09.2023 22:12 19,3 C 18,3 C 15,0 C 77 % 1004,6 hPa 0,0 l/m 0 min 0 min 0 W/m 6,4 km/h (2 Bft) 97,87 %
20.09.2023 22:14 19,3 C 18,3 C 15,0 C 77 % 1004,5 hPa 0,0 l/m 0 min 0 min 0 W/m 12,9 km/h (3 Bft) 97,87 %
20.09.2023 22:16 19,3 C 18,3 C 15,0 C 77 % 1004,5 hPa 0,0 l/m 0 min 0 min 0 W/m 3,2 km/h (1 Bft) 95,74 %
20.09.2023 22:18 19,3 C 18,3 C 15,0 C 77 % 1004,5 hPa 0,0 l/m 0 min 0 min 0 W/m 6,4 km/h (2 Bft) 97,83 %
20.09.2023 22:20 19,3 C 18,3 C 14,4 C 77 % 1004,5 hPa 0,0 l/m 0 min 0 min 0 W/m 3,2 km/h (1 Bft) 95,74 %
20.09.2023 22:22 19,2 C 18,3 C 14,4 C 77 % 1004,5 hPa 0,0 l/m 0 min 0 min 0 W/m 3,2 km/h (1 Bft) 95,74 %
20.09.2023 22:24 19,2 C 18,3 C 14,4 C 77 % 1004,5 hPa 0,0 l/m 0 min 0 min 0 W/m 6,4 km/h (2 Bft) 97,87 %
20.09.2023 22:26 19,2 C 18,3 C 14,4 C 77 % 1004,5 hPa 0,0 l/m 0 min 0 min 0 W/m 3,2 km/h (1 Bft) 94,29 %
20.09.2023 22:28 19,2 C 18,3 C 14,4 C 77 % 1004,5 hPa 0,0 l/m 0 min 0 min 0 W/m 6,4 km/h (2 Bft) 98,31 %
20.09.2023 22:30 19,2 C 17,8 C 14,4 C 77 % 1004,5 hPa 0,0 l/m 0 min 0 min 0 W/m 6,4 km/h (2 Bft) 94,29 %
20.09.2023 22:32 19,2 C 17,8 C 14,4 C 77 % 1004,4 hPa 0,0 l/m 0 min 0 min 0 W/m 6,4 km/h (2 Bft) 93,62 %
20.09.2023 22:34 19,1 C 17,8 C 14,4 C 77 % 1004,4 hPa 0,0 l/m 0 min 0 min 0 W/m 3,2 km/h (1 Bft) 93,62 %
20.09.2023 22:36 19,1 C 17,8 C 14,4 C 77 % 1004,5 hPa 0,0 l/m 0 min 0 min 0 W/m 6,4 km/h (2 Bft) 96,00 %
20.09.2023 22:38 19,1 C 17,8 C 14,4 C 77 % 1004,4 hPa 0,0 l/m 0 min 0 min 0 W/m 3,2 km/h (1 Bft) 95,74 %
20.09.2023 22:40 19,1 C 17,8 C 14,4 C 77 % 1004,4 hPa 0,0 l/m 0 min 0 min 0 W/m 6,4 km/h (2 Bft) 93,48 %
20.09.2023 22:42 19,1 C 17,8 C 14,4 C 77 % 1004,4 hPa 0,0 l/m 0 min 0 min 0 W/m 6,4 km/h (2 Bft) 93,62 %
20.09.2023 22:44 19,0 C 17,8 C 14,4 C 78 % 1004,4 hPa 0,0 l/m 0 min 0 min 0 W/m 6,4 km/h (2 Bft) 93,62 %
20.09.2023 22:46 19,0 C 17,8 C 14,4 C 78 % 1004,4 hPa 0,0 l/m 0 min 0 min 0 W/m 6,4 km/h (2 Bft) 93,62 %
20.09.2023 22:48 18,9 C 17,8 C 14,4 C 78 % 1004,4 hPa 0,0 l/m 0 min 0 min 0 W/m 3,2 km/h (1 Bft) 95,74 %
20.09.2023 22:50 18,9 C 17,8 C 14,4 C 78 % 1004,3 hPa 0,0 l/m 0 min 0 min 0 W/m 3,2 km/h (1 Bft) 95,74 %
20.09.2023 22:52 18,9 C 17,8 C 14,4 C 78 % 1004,2 hPa 0,0 l/m 0 min 0 min 0 W/m 6,4 km/h (2 Bft) 97,87 %
20.09.2023 22:54 18,9 C 17,8 C 14,4 C 78 % 1004,2 hPa 0,0 l/m 0 min 0 min 0 W/m 12,9 km/h (3 Bft) 97,87 %
20.09.2023 22:56 18,8 C 17,8 C 14,4 C 78 % 1004,2 hPa 0,0 l/m 0 min 0 min 0 W/m 6,4 km/h (2 Bft) 95,92 %
20.09.2023 22:58 18,8 C 17,8 C 14,4 C 78 % 1004,1 hPa 0,0 l/m 0 min 0 min 0 W/m 3,2 km/h (1 Bft) 97,87 %
20.09.2023 23:00 18,8 C 17,8 C 13,9 C 79 % 1004,1 hPa 0,0 l/m 0 min 0 min 0 W/m 3,2 km/h (1 Bft) 97,87 %
20.09.2023 23:02 18,8 C 17,8 C 13,9 C 78 % 1004,1 hPa 0,0 l/m 0 min 0 min 0 W/m 6,4 km/h (2 Bft) 97,87 %
20.09.2023 23:04 18,7 C 17,2 C 13,9 C 79 % 1004,1 hPa 0,0 l/m 0 min 0 min 0 W/m 6,4 km/h (2 Bft) 97,83 %
20.09.2023 23:08 18,7 C 17,2 C 13,9 C 79 % 1004,0 hPa 0,0 l/m 0 min 0 min 0 W/m 12,9 km/h (3 Bft) 94,51 %
20.09.2023 23:12 18,6 C 17,2 C 13,9 C 79 % 1004,0 hPa 0,0 l/m 0 min 0 min 0 W/m 6,4 km/h (2 Bft) 97,22 %
20.09.2023 23:14 18,6 C 17,2 C 13,9 C 79 % 1003,9 hPa 0,0 l/m 0 min 0 min 0 W/m 6,4 km/h (2 Bft) 95,74 %
20.09.2023 23:16 18,5 C 17,8 C 13,9 C 79 % 1003,9 hPa 0,0 l/m 0 min 0 min 0 W/m 6,4 km/h (2 Bft) 97,87 %
20.09.2023 23:18 18,5 C 17,8 C 13,9 C 79 % 1003,9 hPa 0,0 l/m 0 min 0 min 0 W/m 6,4 km/h (2 Bft) 97,87 %
20.09.2023 23:20 18,5 C 17,8 C 13,9 C 80 % 1003,8 hPa 0,0 l/m 0 min 0 min 0 W/m 6,4 km/h (2 Bft) 91,49 %
20.09.2023 23:22 18,5 C 17,8 C 13,9 C 80 % 1003,8 hPa 0,0 l/m 0 min 0 min 0 W/m 6,4 km/h (2 Bft) 97,83 %
20.09.2023 23:24 18,5 C 17,8 C 13,9 C 79 % 1003,8 hPa 0,0 l/m 0 min 0 min 0 W/m 12,9 km/h (3 Bft) 97,87 %
20.09.2023 23:26 18,5 C 17,8 C 13,9 C 79 % 1003,8 hPa 0,0 l/m 0 min 0 min 0 W/m 9,7 km/h (2 Bft) 97,87 %
20.09.2023 23:28 18,5 C 17,8 C 13,9 C 79 % 1003,8 hPa 0,0 l/m 0 min 0 min 0 W/m 16,1 km/h (3 Bft) 95,74 %
20.09.2023 23:30 18,5 C 17,8 C 13,9 C 79 % 1003,8 hPa 0,0 l/m 0 min 0 min 0 W/m 19,3 km/h (3 Bft) 97,87 %
20.09.2023 23:32 18,5 C 17,8 C 13,9 C 79 % 1003,7 hPa 0,0 l/m 0 min 0 min 0 W/m 16,1 km/h (3 Bft) 97,87 %
20.09.2023 23:34 18,5 C 17,8 C 13,9 C 79 % 1003,7 hPa 0,0 l/m 0 min 0 min 0 W/m 19,3 km/h (3 Bft) 97,87 %
20.09.2023 23:36 18,5 C 17,8 C 13,9 C 79 % 1003,7 hPa 0,0 l/m 0 min 0 min 0 W/m 12,9 km/h (3 Bft) 97,87 %
20.09.2023 23:38 18,5 C 17,8 C 13,9 C 79 % 1003,6 hPa 0,0 l/m 0 min 0 min 0 W/m 12,9 km/h (3 Bft) 100,00 %
20.09.2023 23:40 18,5 C 17,8 C 13,9 C 79 % 1003,6 hPa 0,0 l/m 0 min 0 min 0 W/m 9,7 km/h (2 Bft) 100,00 %
20.09.2023 23:42 18,5 C 17,8 C 13,9 C 79 % 1003,7 hPa 0,0 l/m 0 min 0 min 0 W/m 6,4 km/h (2 Bft) 100,00 %
20.09.2023 23:44 18,5 C 17,8 C 13,9 C 79 % 1003,6 hPa 0,0 l/m 0 min 0 min 0 W/m 12,9 km/h (3 Bft) 97,87 %
20.09.2023 23:46 18,5 C 17,8 C 13,9 C 80 % 1003,6 hPa 0,0 l/m 0 min 0 min 0 W/m 12,9 km/h (3 Bft) 97,87 %
20.09.2023 23:48 18,5 C 17,8 C 13,9 C 80 % 1003,6 hPa 0,0 l/m 0 min 0 min 0 W/m 6,4 km/h (2 Bft) 100,00 %
20.09.2023 23:50 18,5 C 17,8 C 13,9 C 80 % 1003,6 hPa 0,0 l/m 0 min 0 min 0 W/m 12,9 km/h (3 Bft) 100,00 %
20.09.2023 23:52 18,5 C 17,8 C 13,9 C 80 % 1003,6 hPa 0,0 l/m 0 min 0 min 0 W/m 16,1 km/h (3 Bft) 100,00 %
20.09.2023 23:54 18,4 C 17,8 C 13,9 C 80 % 1003,6 hPa 0,0 l/m 0 min 0 min 0 W/m 6,4 km/h (2 Bft) 97,92 %
20.09.2023 23:56 18,4 C 17,8 C 13,9 C 80 % 1003,6 hPa 0,0 l/m 0 min 0 min 0 W/m 16,1 km/h (3 Bft) 100,00 %
20.09.2023 23:58 18,4 C 17,2 C 13,9 C 80 % 1003,5 hPa 0,0 l/m 0 min 0 min 0 W/m 6,4 km/h (2 Bft) 100,00 %
_ Min-Zeit 08:18 07:48 07:52 16:28 23:58 - - - - 20:18 00:54
Minimum _ 15,4 C 14,4 C 11,1 C 63 % 1003,5 hPa - - - - 0,0 km/h (0 Bft) 52,38 %
_ Max-Zeit 17:36 17:30 16:24 08:34 00:02 00:00 12:16 00:00 15:16 14:20 00:27
Maximum _ 24,3 C 26,7 C 19,4 C 92 % 1010,9 hPa 0,0 l/m 4 min 0 min 668 W/m 51,5 km/h
SW (7 Bft)
100,00 %
Durchschnitt _ 19,4 C 18,9 C 14,9 C 78 % 1008,0 hPa #0,0 l/m #4:28 h #0 min. 221 W/m 13,5 km/h (3 Bft) 97,40 %
© 2023 W. Hausmann